Observation data for Weinert on 12/09/2018      Previous  Date       Current Mesonet Observations  Soil Data  Daily Summary Page  Observations in Plain Language
KWE1 090600Z 26003KT M03/M04 A3033 RMK A01 T10261043  RH  088%=      5-min Rain = 0
KWE1 090601Z 27003KT M03/M04 A3033 RMK A01 T10261043  RH  088%=      5-min Rain = 0
KWE1 090602Z 27002KT M03/M04 A3033 RMK A01 T10261042  RH  088%=      5-min Rain = 0
KWE1 090603Z 27002KT M03/M04 A3033 RMK A01 T10261043  RH  088%=      5-min Rain = 0
KWE1 090604Z 27003KT M03/M04 A3033 RMK A01 T10261042  RH  089%=      5-min Rain = 0
KWE1 090605Z 27002KT M03/M04 A3033 RMK A01 T10261043  RH  088%=      5-min Rain = 0
KWE1 090606Z 28003KT M03/M04 A3033 RMK A01 T10261043  RH  088%=      5-min Rain = 0
KWE1 090607Z 28004KT M03/M04 A3033 RMK A01 T10261043  RH  088%=      5-min Rain = 0
KWE1 090608Z 27004KT M03/M04 A3033 RMK A01 T10261043  RH  088%=      5-min Rain = 0
KWE1 090609Z 28003KT M03/M04 A3033 RMK A01 T10271043  RH  088%=      5-min Rain = 0
KWE1 090610Z 28003KT M03/M04 A3033 RMK A01 T10271043  RH  089%=      5-min Rain = 0
KWE1 090611Z 28003KT M03/M04 A3033 RMK A01 T10261043  RH  088%=      5-min Rain = 0
KWE1 090612Z 28002KT M03/M04 A3033 RMK A01 T10261043  RH  088%=      5-min Rain = 0
KWE1 090613Z 29003KT M03/M04 A3033 RMK A01 T10261043  RH  088%=      5-min Rain = 0
KWE1 090614Z 28003KT M03/M04 A3033 RMK A01 T10261043  RH  088%=      5-min Rain = 0
KWE1 090615Z 28003KT M03/M04 A3033 RMK A01 T10261043  RH  088%=      5-min Rain = 0
KWE1 090616Z 28003KT M03/M04 A3033 RMK A01 T10271043  RH  088%=      5-min Rain = 0
KWE1 090617Z 28003KT M03/M04 A3033 RMK A01 T10271044  RH  088%=      5-min Rain = 0
KWE1 090618Z 28002KT M03/M04 A3033 RMK A01 T10271044  RH  088%=      5-min Rain = 0
KWE1 090619Z 28002KT M03/M04 A3033 RMK A01 T10271044  RH  088%=      5-min Rain = 0
KWE1 090620Z 28002KT M03/M04 A3033 RMK A01 T10271044  RH  088%=      5-min Rain = 0
KWE1 090621Z 29003KT M03/M04 A3033 RMK A01 T10271043  RH  088%=      5-min Rain = 0
KWE1 090622Z 29003KT M03/M04 A3033 RMK A01 T10271044  RH  088%=      5-min Rain = 0
KWE1 090623Z 29003KT M03/M04 A3033 RMK A01 T10271044  RH  088%=      5-min Rain = 0
KWE1 090624Z 29003KT M03/M04 A3033 RMK A01 T10271044  RH  088%=      5-min Rain = 0
KWE1 090625Z 28003KT M03/M04 A3033 RMK A01 T10271044  RH  088%=      5-min Rain = 0
KWE1 090626Z 28004KT M03/M04 A3033 RMK A01 T10271044  RH  088%=      5-min Rain = 0
KWE1 090627Z 28004KT M03/M04 A3032 RMK A01 T10261044  RH  088%=      5-min Rain = 0
KWE1 090628Z 28004KT M03/M04 A3032 RMK A01 T10261044  RH  088%=      5-min Rain = 0
KWE1 090629Z 28003KT M03/M04 A3032 RMK A01 T10271044  RH  088%=      5-min Rain = 0
KWE1 090630Z 28003KT M03/M04 A3032 RMK A01 T10271044  RH  088%=      5-min Rain = 0
KWE1 090631Z 28004KT M03/M04 A3032 RMK A01 T10271044  RH  088%=      5-min Rain = 0
KWE1 090632Z 28003KT M03/M04 A3032 RMK A01 T10261044  RH  088%=      5-min Rain = 0
KWE1 090633Z 28003KT M03/M04 A3032 RMK A01 T10271044  RH  088%=      5-min Rain = 0
KWE1 090634Z 28004KT M03/M04 A3032 RMK A01 T10271044  RH  088%=      5-min Rain = 0
KWE1 090635Z 28003KT M03/M05 A3032 RMK A01 T10271045  RH  088%=      5-min Rain = 0
KWE1 090636Z 28003KT M03/M05 A3032 RMK A01 T10271045  RH  088%=      5-min Rain = 0
KWE1 090637Z 28004KT M03/M05 A3032 RMK A01 T10271045  RH  088%=      5-min Rain = 0
KWE1 090638Z 28003KT M03/M05 A3032 RMK A01 T10281046  RH  088%=      5-min Rain = 0
KWE1 090639Z 28004KT M03/M05 A3032 RMK A01 T10281046  RH  088%=      5-min Rain = 0
KWE1 090640Z 28003KT M03/M05 A3032 RMK A01 T10281045  RH  088%=      5-min Rain = 0
KWE1 090641Z 28003KT M03/M05 A3032 RMK A01 T10281045  RH  088%=      5-min Rain = 0
KWE1 090642Z 28003KT M03/M05 A3032 RMK A01 T10281045  RH  088%=      5-min Rain = 0
KWE1 090643Z 28003KT M03/M05 A3032 RMK A01 T10281045  RH  088%=      5-min Rain = 0
KWE1 090644Z 29003KT M03/M05 A3032 RMK A01 T10281045  RH  088%=      5-min Rain = 0
KWE1 090645Z 28003KT M03/M05 A3033 RMK A01 T10281046  RH  088%=      5-min Rain = 0
KWE1 090646Z 28002KT M03/M05 A3033 RMK A01 T10281046  RH  088%=      5-min Rain = 0
KWE1 090647Z 28003KT M03/M05 A3033 RMK A01 T10291046  RH  088%=      5-min Rain = 0
KWE1 090648Z 28003KT M03/M05 A3033 RMK A01 T10291046  RH  088%=      5-min Rain = 0
KWE1 090649Z 28003KT M03/M05 A3033 RMK A01 T10291046  RH  088%=      5-min Rain = 0
KWE1 090650Z 28003KT M03/M05 A3033 RMK A01 T10291046  RH  088%=      5-min Rain = 0
KWE1 090651Z 28003KT M03/M05 A3033 RMK A01 T10291046  RH  088%=      5-min Rain = 0
KWE1 090652Z 28003KT M03/M05 A3033 RMK A01 T10291046  RH  088%=      5-min Rain = 0
KWE1 090653Z 28003KT M03/M05 A3033 RMK A01 T10291046  RH  088%=      5-min Rain = 0
KWE1 090654Z 29003KT M03/M05 A3033 RMK A01 T10291046  RH  088%=      5-min Rain = 0
KWE1 090655Z 29004KT M03/M05 A3033 RMK A01 T10291046  RH  088%=      5-min Rain = 0
KWE1 090656Z 30005KT M03/M05 A3033 RMK A01 T10291046  RH  088%=      5-min Rain = 0
KWE1 090657Z 30004KT M03/M05 A3033 RMK A01 T10291046  RH  088%=      5-min Rain = 0
KWE1 090658Z 30005KT M03/M05 A3032 RMK A01 T10281046  RH  088%=      5-min Rain = 0
KWE1 090659Z 31004KT M03/M05 A3032 RMK A01 T10281046  RH  088%=      5-min Rain = 0
KWE1 090700Z 31004KT M03/M05 A3032 RMK A01 T10281046  RH  088%=      5-min Rain = 0
KWE1 090701Z 31004KT M03/M05 A3032 RMK A01 T10281046  RH  088%=      5-min Rain = 0
KWE1 090702Z 31005KT M03/M05 A3032 RMK A01 T10281046  RH  088%=      5-min Rain = 0
KWE1 090703Z 31004KT M03/M05 A3032 RMK A01 T10281046  RH  088%=      5-min Rain = 0
KWE1 090704Z 31004KT M03/M05 A3032 RMK A01 T10281045  RH  088%=      5-min Rain = 0
KWE1 090705Z 31004KT M03/M05 A3032 RMK A01 T10271045  RH  088%=      5-min Rain = 0
KWE1 090706Z 31004KT M03/M05 A3032 RMK A01 T10271045  RH  087%=      5-min Rain = 0
KWE1 090707Z 31003KT M03/M05 A3032 RMK A01 T10271045  RH  087%=      5-min Rain = 0
KWE1 090708Z 31003KT M03/M05 A3032 RMK A01 T10261045  RH  087%=      5-min Rain = 0
KWE1 090709Z 31002KT M03/M05 A3032 RMK A01 T10261045  RH  087%=      5-min Rain = 0
KWE1 090710Z 32003KT M03/M05 A3032 RMK A01 T10261045  RH  087%=      5-min Rain = 0
KWE1 090711Z 34002KT M03/M05 A3032 RMK A01 T10261045  RH  087%=      5-min Rain = 0
KWE1 090712Z 34002KT M03/M05 A3032 RMK A01 T10261045  RH  087%=      5-min Rain = 0
KWE1 090713Z 35002KT M03/M05 A3032 RMK A01 T10271046  RH  087%=      5-min Rain = 0
KWE1 090714Z 36002KT M03/M05 A3032 RMK A01 T10271046  RH  087%=      5-min Rain = 0
KWE1 090715Z 35002KT M03/M05 A3032 RMK A01 T10271046  RH  087%=      5-min Rain = 0
KWE1 090716Z 35003KT M03/M05 A3032 RMK A01 T10271046  RH  087%=      5-min Rain = 0
KWE1 090717Z 34003KT M03/M05 A3032 RMK A01 T10271046  RH  087%=      5-min Rain = 0
KWE1 090718Z 34003KT M03/M05 A3032 RMK A01 T10271046  RH  087%=      5-min Rain = 0
KWE1 090719Z 33003KT M03/M05 A3032 RMK A01 T10271046  RH  087%=      5-min Rain = 0
KWE1 090720Z 32003KT M03/M05 A3032 RMK A01 T10271046  RH  087%=      5-min Rain = 0
KWE1 090721Z 32004KT M03/M05 A3032 RMK A01 T10271046  RH  087%=      5-min Rain = 0
KWE1 090722Z 32004KT M03/M05 A3032 RMK A01 T10271046  RH  087%=      5-min Rain = 0
KWE1 090723Z 32004KT M03/M05 A3032 RMK A01 T10271046  RH  087%=      5-min Rain = 0
KWE1 090724Z 32003KT M03/M05 A3032 RMK A01 T10271046  RH  087%=      5-min Rain = 0
KWE1 090725Z 32002KT M03/M05 A3032 RMK A01 T10271046  RH  087%=      5-min Rain = 0
KWE1 090726Z 33003KT M03/M05 A3032 RMK A01 T10271046  RH  087%=      5-min Rain = 0
KWE1 090727Z 34002KT M03/M05 A3032 RMK A01 T10271046  RH  087%=      5-min Rain = 0
KWE1 090728Z 34001KT M03/M05 A3032 RMK A01 T10271046  RH  087%=      5-min Rain = 0
KWE1 090729Z 32001KT M03/M05 A3032 RMK A01 T10271045  RH  087%=      5-min Rain = 0
KWE1 090730Z 32001KT M03/M05 A3032 RMK A01 T10271045  RH  087%=      5-min Rain = 0
KWE1 090731Z 31002KT M03/M05 A3032 RMK A01 T10271046  RH  087%=      5-min Rain = 0
KWE1 090732Z 32002KT M03/M05 A3032 RMK A01 T10271046  RH  087%=      5-min Rain = 0
KWE1 090733Z 31002KT M03/M05 A3032 RMK A01 T10271045  RH  087%=      5-min Rain = 0
KWE1 090734Z 32002KT M03/M05 A3032 RMK A01 T10271045  RH  087%=      5-min Rain = 0
KWE1 090735Z 31002KT M03/M05 A3032 RMK A01 T10271045  RH  087%=      5-min Rain = 0
KWE1 090736Z 31001KT M03/M05 A3032 RMK A01 T10271046  RH  087%=      5-min Rain = 0
KWE1 090737Z 30001KT M03/M05 A3032 RMK A01 T10281046  RH  087%=      5-min Rain = 0
KWE1 090738Z 31001KT M03/M05 A3032 RMK A01 T10281046  RH  087%=      5-min Rain = 0
KWE1 090739Z 31002KT M03/M05 A3032 RMK A01 T10281046  RH  087%=      5-min Rain = 0
KWE1 090740Z 32003KT M03/M05 A3032 RMK A01 T10281046  RH  087%=      5-min Rain = 0
KWE1 090741Z 32003KT M03/M05 A3032 RMK A01 T10271045  RH  088%=      5-min Rain = 0
KWE1 090742Z 32003KT M03/M04 A3032 RMK A01 T10271044  RH  088%=      5-min Rain = 0
KWE1 090743Z 32003KT M03/M04 A3032 RMK A01 T10261044  RH  088%=      5-min Rain = 0
KWE1 090744Z 33003KT M03/M04 A3032 RMK A01 T10261044  RH  087%=      5-min Rain = 0
KWE1 090745Z 32002KT M03/M04 A3032 RMK A01 T10261044  RH  087%=      5-min Rain = 0
KWE1 090746Z 32002KT M03/M05 A3032 RMK A01 T10261045  RH  087%=      5-min Rain = 0
KWE1 090747Z 32003KT M03/M05 A3032 RMK A01 T10261045  RH  087%=      5-min Rain = 0
KWE1 090748Z 32002KT M03/M05 A3032 RMK A01 T10261045  RH  087%=      5-min Rain = 0
KWE1 090749Z 32003KT M03/M05 A3032 RMK A01 T10261045  RH  087%=      5-min Rain = 0
KWE1 090750Z 31003KT M03/M05 A3032 RMK A01 T10261045  RH  087%=      5-min Rain = 0
KWE1 090751Z 31003KT M03/M04 A3032 RMK A01 T10251044  RH  087%=      5-min Rain = 0
KWE1 090752Z 32003KT M02/M04 A3032 RMK A01 T10241044  RH  087%=      5-min Rain = 0
KWE1 090753Z 32002KT M02/M04 A3032 RMK A01 T10241044  RH  086%=      5-min Rain = 0
KWE1 090754Z 32002KT M03/M05 A3032 RMK A01 T10251045  RH  086%=      5-min Rain = 0
KWE1 090755Z 32002KT M03/M05 A3032 RMK A01 T10251045  RH  086%=      5-min Rain = 0
KWE1 090756Z 32002KT M03/M05 A3032 RMK A01 T10251045  RH  086%=      5-min Rain = 0
KWE1 090757Z 31002KT M03/M05 A3032 RMK A01 T10251045  RH  086%=      5-min Rain = 0
KWE1 090758Z 32002KT M02/M05 A3032 RMK A01 T10241045  RH  086%=      5-min Rain = 0
KWE1 090759Z 33002KT M03/M05 A3032 RMK A01 T10251045  RH  086%=      5-min Rain = 0
KWE1 090800Z 32001KT M03/M05 A3032 RMK A01 T10251045  RH  086%=      5-min Rain = 0
KWE1 090801Z 31002KT M03/M05 A3032 RMK A01 T10251045  RH  086%=      5-min Rain = 0
KWE1 090802Z 32002KT M03/M05 A3032 RMK A01 T10251045  RH  086%=      5-min Rain = 0
KWE1 090803Z 33003KT M03/M05 A3032 RMK A01 T10251045  RH  086%=      5-min Rain = 0
KWE1 090804Z 32002KT M03/M05 A3033 RMK A01 T10251045  RH  086%=      5-min Rain = 0
KWE1 090805Z 31002KT M03/M05 A3033 RMK A01 T10251045  RH  086%=      5-min Rain = 0
KWE1 090806Z 30003KT M03/M05 A3033 RMK A01 T10251045  RH  086%=      5-min Rain = 0
KWE1 090807Z 31002KT M03/M05 A3033 RMK A01 T10251045  RH  086%=      5-min Rain = 0
KWE1 090808Z 30002KT M03/M05 A3033 RMK A01 T10251046  RH  086%=      5-min Rain = 0
KWE1 090809Z 30002KT M03/M05 A3033 RMK A01 T10251046  RH  086%=      5-min Rain = 0
KWE1 090810Z 30002KT M03/M05 A3033 RMK A01 T10261047  RH  086%=      5-min Rain = 0
KWE1 090811Z 29002KT M03/M05 A3033 RMK A01 T10261047  RH  085%=      5-min Rain = 0
KWE1 090812Z 30002KT M03/M05 A3033 RMK A01 T10261048  RH  085%=      5-min Rain = 0
KWE1 090813Z 30002KT M03/M05 A3033 RMK A01 T10271047  RH  086%=      5-min Rain = 0
KWE1 090814Z 30002KT M03/M05 A3033 RMK A01 T10271047  RH  086%=      5-min Rain = 0
KWE1 090815Z 31002KT M03/M05 A3033 RMK A01 T10271047  RH  086%=      5-min Rain = 0
KWE1 090816Z 32002KT M03/M05 A3033 RMK A01 T10281048  RH  086%=      5-min Rain = 0
KWE1 090817Z 30002KT M03/M05 A3033 RMK A01 T10281048  RH  086%=      5-min Rain = 0
KWE1 090818Z 31002KT M03/M05 A3033 RMK A01 T10281048  RH  086%=      5-min Rain = 0
KWE1 090819Z 30002KT M03/M05 A3033 RMK A01 T10271047  RH  086%=      5-min Rain = 0
KWE1 090820Z 30002KT M03/M05 A3033 RMK A01 T10271047  RH  086%=      5-min Rain = 0
KWE1 090821Z 30002KT M03/M05 A3033 RMK A01 T10271047  RH  086%=      5-min Rain = 0
KWE1 090822Z 31002KT M03/M05 A3033 RMK A01 T10271047  RH  086%=      5-min Rain = 0
KWE1 090823Z 32002KT M03/M05 A3033 RMK A01 T10271048  RH  086%=      5-min Rain = 0
KWE1 090824Z 32003KT M03/M05 A3033 RMK A01 T10271047  RH  086%=      5-min Rain = 0
KWE1 090825Z 31002KT M03/M05 A3033 RMK A01 T10271047  RH  086%=      5-min Rain = 0
KWE1 090826Z 31003KT M03/M05 A3033 RMK A01 T10271047  RH  086%=      5-min Rain = 0
KWE1 090827Z 31003KT M03/M05 A3033 RMK A01 T10271047  RH  086%=      5-min Rain = 0
KWE1 090828Z 31003KT M03/M05 A3033 RMK A01 T10271047  RH  086%=      5-min Rain = 0
KWE1 090829Z 30003KT M03/M05 A3033 RMK A01 T10271047  RH  086%=      5-min Rain = 0
KWE1 090830Z 31003KT M03/M05 A3033 RMK A01 T10271047  RH  086%=      5-min Rain = 0
KWE1 090831Z 31002KT M03/M05 A3033 RMK A01 T10271047  RH  086%=      5-min Rain = 0
KWE1 090832Z 31002KT M03/M05 A3033 RMK A01 T10281048  RH  086%=      5-min Rain = 0
KWE1 090833Z 31002KT M03/M05 A3033 RMK A01 T10281048  RH  086%=      5-min Rain = 0
KWE1 090834Z 31002KT M03/M05 A3033 RMK A01 T10281048  RH  086%=      5-min Rain = 0
KWE1 090835Z 31002KT M03/M05 A3033 RMK A01 T10281048  RH  086%=      5-min Rain = 0
KWE1 090836Z 31002KT M03/M05 A3033 RMK A01 T10281049  RH  086%=      5-min Rain = 0
KWE1 090837Z 31002KT M03/M05 A3033 RMK A01 T10281048  RH  086%=      5-min Rain = 0
KWE1 090838Z 31002KT M03/M05 A3033 RMK A01 T10281048  RH  086%=      5-min Rain = 0
KWE1 090839Z 32002KT M03/M05 A3033 RMK A01 T10281048  RH  086%=      5-min Rain = 0
KWE1 090840Z 31002KT M03/M05 A3033 RMK A01 T10281048  RH  086%=      5-min Rain = 0
KWE1 090841Z 31001KT M03/M05 A3033 RMK A01 T10271047  RH  086%=      5-min Rain = 0
KWE1 090842Z 31002KT M03/M05 A3033 RMK A01 T10271048  RH  086%=      5-min Rain = 0
KWE1 090843Z 32002KT M03/M05 A3033 RMK A01 T10271048  RH  086%=      5-min Rain = 0
KWE1 090844Z 31001KT M03/M05 A3033 RMK A01 T10271048  RH  086%=      5-min Rain = 0
KWE1 090845Z 31001KT M03/M05 A3033 RMK A01 T10271047  RH  086%=      5-min Rain = 0
KWE1 090846Z 29001KT M03/M05 A3033 RMK A01 T10261047  RH  086%=      5-min Rain = 0
KWE1 090847Z 30002KT M03/M05 A3033 RMK A01 T10261047  RH  086%=      5-min Rain = 0
KWE1 090848Z 30002KT M03/M05 A3033 RMK A01 T10261047  RH  085%=      5-min Rain = 0
KWE1 090849Z 29002KT M03/M05 A3033 RMK A01 T10261047  RH  085%=      5-min Rain = 0
KWE1 090850Z 28001KT M03/M05 A3033 RMK A01 T10261047  RH  085%=      5-min Rain = 0
KWE1 090851Z 30002KT M03/M05 A3033 RMK A01 T10261048  RH  085%=      5-min Rain = 0
KWE1 090852Z 29001KT M03/M05 A3033 RMK A01 T10261047  RH  085%=      5-min Rain = 0
KWE1 090853Z 32001KT M03/M05 A3033 RMK A01 T10261048  RH  085%=      5-min Rain = 0
KWE1 090854Z 32001KT M03/M05 A3033 RMK A01 T10261048  RH  085%=      5-min Rain = 0
KWE1 090855Z 32001KT M03/M05 A3033 RMK A01 T10271049  RH  085%=      5-min Rain = 0
KWE1 090856Z 30000KT M03/M05 A3033 RMK A01 T10271049  RH  085%=      5-min Rain = 0
KWE1 090857Z 33000KT M03/M05 A3033 RMK A01 T10281050  RH  085%=      5-min Rain = 0
KWE1 090858Z 32001KT M03/M05 A3033 RMK A01 T10281051  RH  085%=      5-min Rain = 0
KWE1 090859Z 36000KT M03/M05 A3033 RMK A01 T10291051  RH  085%=      5-min Rain = 0
KWE1 090900Z 34000KT M03/M05 A3033 RMK A01 T10301052  RH  085%=      5-min Rain = 0
KWE1 090901Z 29000KT M03/M05 A3033 RMK A01 T10301052  RH  085%=      5-min Rain = 0
KWE1 090902Z 35000KT M03/M05 A3033 RMK A01 T10311053  RH  085%=      5-min Rain = 0
KWE1 090903Z 00000KT M03/M05 A3033 RMK A01 T10311052  RH  085%=      5-min Rain = 0
KWE1 090904Z 00000KT M03/M05 A3033 RMK A01 T10311052  RH  086%=      5-min Rain = 0
KWE1 090905Z 03000KT M03/M05 A3032 RMK A01 T10311052  RH  086%=      5-min Rain = 0
KWE1 090906Z 01001KT M03/M05 A3032 RMK A01 T10311052  RH  086%=      5-min Rain = 0
KWE1 090907Z 35001KT M03/M05 A3032 RMK A01 T10321052  RH  086%=      5-min Rain = 0
KWE1 090908Z 34001KT M03/M05 A3032 RMK A01 T10321052  RH  086%=      5-min Rain = 0
KWE1 090909Z 35001KT M03/M05 A3032 RMK A01 T10321051  RH  086%=      5-min Rain = 0
KWE1 090910Z 35001KT M03/M05 A3032 RMK A01 T10321051  RH  086%=      5-min Rain = 0
KWE1 090911Z 34001KT M03/M05 A3032 RMK A01 T10321051  RH  087%=      5-min Rain = 0
KWE1 090912Z 34002KT M03/M05 A3032 RMK A01 T10321051  RH  087%=      5-min Rain = 0
KWE1 090913Z 35002KT M03/M05 A3032 RMK A01 T10321051  RH  087%=      5-min Rain = 0
KWE1 090914Z 35001KT M03/M05 A3032 RMK A01 T10321050  RH  087%=      5-min Rain = 0
KWE1 090915Z 36002KT M03/M05 A3032 RMK A01 T10311050  RH  087%=      5-min Rain = 0
KWE1 090916Z 01001KT M03/M05 A3032 RMK A01 T10311049  RH  087%=      5-min Rain = 0
KWE1 090917Z 01001KT M03/M05 A3032 RMK A01 T10311049  RH  087%=      5-min Rain = 0
KWE1 090918Z 36002KT M03/M05 A3032 RMK A01 T10301048  RH  087%=      5-min Rain = 0
KWE1 090919Z 35002KT M03/M05 A3032 RMK A01 T10301048  RH  087%=      5-min Rain = 0
KWE1 090920Z 34002KT M03/M05 A3032 RMK A01 T10291047  RH  087%=      5-min Rain = 0
KWE1 090921Z 33002KT M03/M05 A3032 RMK A01 T10291047  RH  087%=      5-min Rain = 0
KWE1 090922Z 31002KT M03/M05 A3032 RMK A01 T10281046  RH  087%=      5-min Rain = 0
KWE1 090923Z 31002KT M03/M05 A3032 RMK A01 T10271046  RH  087%=      5-min Rain = 0
KWE1 090924Z 30002KT M03/M05 A3032 RMK A01 T10271046  RH  087%=      5-min Rain = 0
KWE1 090925Z 30003KT M03/M05 A3032 RMK A01 T10271047  RH  086%=      5-min Rain = 0
KWE1 090926Z 30003KT M03/M05 A3032 RMK A01 T10271047  RH  086%=      5-min Rain = 0
KWE1 090927Z 29003KT M03/M05 A3032 RMK A01 T10271048  RH  085%=      5-min Rain = 0
KWE1 090928Z 28003KT M03/M05 A3032 RMK A01 T10281049  RH  085%=      5-min Rain = 0
KWE1 090929Z 28003KT M03/M05 A3032 RMK A01 T10291050  RH  085%=      5-min Rain = 0
KWE1 090930Z 27003KT M03/M05 A3032 RMK A01 T10291051  RH  085%=      5-min Rain = 0
KWE1 090931Z 28003KT M03/M05 A3033 RMK A01 T10301052  RH  085%=      5-min Rain = 0
KWE1 090932Z 29002KT M03/M05 A3033 RMK A01 T10311052  RH  085%=      5-min Rain = 0
KWE1 090933Z 29002KT M03/M05 A3032 RMK A01 T10311051  RH  086%=      5-min Rain = 0
KWE1 090934Z 30003KT M03/M05 A3032 RMK A01 T10311051  RH  086%=      5-min Rain = 0
KWE1 090935Z 31002KT M03/M05 A3032 RMK A01 T10301051  RH  086%=      5-min Rain = 0
KWE1 090936Z 31002KT M03/M05 A3032 RMK A01 T10301050  RH  086%=      5-min Rain = 0
KWE1 090937Z 33002KT M03/M05 A3032 RMK A01 T10301050  RH  086%=      5-min Rain = 0
KWE1 090938Z 32002KT M03/M05 A3032 RMK A01 T10301050  RH  086%=      5-min Rain = 0
KWE1 090939Z 33003KT M03/M05 A3032 RMK A01 T10301050  RH  086%=      5-min Rain = 0
KWE1 090940Z 31002KT M03/M05 A3032 RMK A01 T10291050  RH  086%=      5-min Rain = 0
KWE1 090941Z 30002KT M03/M05 A3032 RMK A01 T10301050  RH  086%=      5-min Rain = 0
KWE1 090942Z 30003KT M03/M05 A3032 RMK A01 T10301050  RH  086%=      5-min Rain = 0
KWE1 090943Z 30003KT M03/M05 A3032 RMK A01 T10301051  RH  085%=      5-min Rain = 0
KWE1 090944Z 29003KT M03/M05 A3032 RMK A01 T10311052  RH  085%=      5-min Rain = 0
KWE1 090945Z 30002KT M03/M05 A3032 RMK A01 T10311053  RH  085%=      5-min Rain = 0
KWE1 090946Z 30002KT M03/M05 A3032 RMK A01 T10311053  RH  085%=      5-min Rain = 0
KWE1 090947Z 31002KT M03/M05 A3032 RMK A01 T10321054  RH  085%=      5-min Rain = 0
KWE1 090948Z 31002KT M03/M05 A3032 RMK A01 T10321054  RH  085%=      5-min Rain = 0
KWE1 090949Z 29001KT M03/M05 A3032 RMK A01 T10321053  RH  085%=      5-min Rain = 0
KWE1 090950Z 30001KT M03/M05 A3032 RMK A01 T10311053  RH  085%=      5-min Rain = 0
KWE1 090951Z 31002KT M03/M05 A3032 RMK A01 T10311053  RH  085%=      5-min Rain = 0
KWE1 090952Z 32002KT M03/M05 A3032 RMK A01 T10311053  RH  085%=      5-min Rain = 0
KWE1 090953Z 32002KT M03/M05 A3032 RMK A01 T10321053  RH  085%=      5-min Rain = 0
KWE1 090954Z 31002KT M03/M05 A3032 RMK A01 T10321053  RH  085%=      5-min Rain = 0
KWE1 090955Z 31003KT M03/M05 A3032 RMK A01 T10311053  RH  085%=      5-min Rain = 0
KWE1 090956Z 31003KT M03/M05 A3032 RMK A01 T10311053  RH  085%=      5-min Rain = 0
KWE1 090957Z 31003KT M03/M05 A3032 RMK A01 T10321053  RH  085%=      5-min Rain = 0
KWE1 090958Z 31003KT M03/M05 A3032 RMK A01 T10321053  RH  085%=      5-min Rain = 0
KWE1 090959Z 31003KT M03/M05 A3032 RMK A01 T10331054  RH  085%=      5-min Rain = 0
KWE1 091000Z 30004KT M03/M05 A3032 RMK A01 T10331054  RH  085%=      5-min Rain = 0
KWE1 091001Z 30004KT M03/M05 A3032 RMK A01 T10331054  RH  086%=      5-min Rain = 0
KWE1 091002Z 30005KT M03/M05 A3032 RMK A01 T10341054  RH  086%=      5-min Rain = 0
KWE1 091003Z 30004KT M03/M05 A3032 RMK A01 T10341054  RH  086%=      5-min Rain = 0
KWE1 091004Z 30004KT M03/M05 A3032 RMK A01 T10331054  RH  086%=      5-min Rain = 0
KWE1 091005Z 30004KT M03/M05 A3032 RMK A01 T10341054  RH  086%=      5-min Rain = 0
KWE1 091006Z 30003KT M03/M05 A3032 RMK A01 T10341054  RH  086%=      5-min Rain = 0
KWE1 091007Z 31003KT M03/M05 A3032 RMK A01 T10341053  RH  086%=      5-min Rain = 0
KWE1 091008Z 32003KT M03/M05 A3032 RMK A01 T10331053  RH  086%=      5-min Rain = 0
KWE1 091009Z 32003KT M03/M05 A3032 RMK A01 T10331053  RH  086%=      5-min Rain = 0
KWE1 091010Z 32003KT M03/M05 A3032 RMK A01 T10331052  RH  086%=      5-min Rain = 0
KWE1 091011Z 32003KT M03/M05 A3032 RMK A01 T10331052  RH  086%=      5-min Rain = 0
KWE1 091012Z 30003KT M03/M05 A3032 RMK A01 T10321052  RH  086%=      5-min Rain = 0
KWE1 091013Z 30003KT M03/M05 A3032 RMK A01 T10321052  RH  086%=      5-min Rain = 0
KWE1 091014Z 30003KT M03/M05 A3032 RMK A01 T10331052  RH  086%=      5-min Rain = 0
KWE1 091015Z 30003KT M03/M05 A3032 RMK A01 T10331053  RH  086%=      5-min Rain = 0
KWE1 091016Z 30002KT M03/M05 A3032 RMK A01 T10331054  RH  086%=      5-min Rain = 0
KWE1 091017Z 30003KT M03/M05 A3032 RMK A01 T10341054  RH  086%=      5-min Rain = 0
KWE1 091018Z 30003KT M03/M05 A3032 RMK A01 T10341054  RH  086%=      5-min Rain = 0
KWE1 091019Z 31003KT M03/M05 A3032 RMK A01 T10341054  RH  086%=      5-min Rain = 0
KWE1 091020Z 31003KT M03/M05 A3032 RMK A01 T10341054  RH  086%=      5-min Rain = 0
KWE1 091021Z 31002KT M03/M05 A3032 RMK A01 T10341054  RH  086%=      5-min Rain = 0
KWE1 091022Z 31002KT M03/M05 A3032 RMK A01 T10341054  RH  086%=      5-min Rain = 0
KWE1 091023Z 31003KT M03/M05 A3032 RMK A01 T10331054  RH  086%=      5-min Rain = 0
KWE1 091024Z 30003KT M03/M05 A3032 RMK A01 T10341054  RH  086%=      5-min Rain = 0
KWE1 091025Z 30003KT M03/M05 A3032 RMK A01 T10341054  RH  086%=      5-min Rain = 0
KWE1 091026Z 30002KT M03/M05 A3032 RMK A01 T10331053  RH  086%=      5-min Rain = 0
KWE1 091027Z 31002KT M03/M05 A3032 RMK A01 T10331054  RH  086%=      5-min Rain = 0
KWE1 091028Z 32002KT M03/M05 A3032 RMK A01 T10341054  RH  086%=      5-min Rain = 0
KWE1 091029Z 31001KT M03/M05 A3032 RMK A01 T10331054  RH  086%=      5-min Rain = 0
KWE1 091030Z 31002KT M03/M05 A3032 RMK A01 T10331053  RH  086%=      5-min Rain = 0
KWE1 091031Z 31001KT M03/M05 A3032 RMK A01 T10321052  RH  086%=      5-min Rain = 0
KWE1 091032Z 31002KT M03/M05 A3032 RMK A01 T10311051  RH  086%=      5-min Rain = 0
KWE1 091033Z 31001KT M03/M05 A3032 RMK A01 T10311051  RH  086%=      5-min Rain = 0
KWE1 091034Z 31001KT M03/M05 A3032 RMK A01 T10311052  RH  086%=      5-min Rain = 0
KWE1 091035Z 32001KT M03/M05 A3032 RMK A01 T10311052  RH  085%=      5-min Rain = 0
KWE1 091036Z 31001KT M03/M05 A3032 RMK A01 T10311052  RH  085%=      5-min Rain = 0
KWE1 091037Z 32001KT M03/M05 A3032 RMK A01 T10311053  RH  085%=      5-min Rain = 0
KWE1 091038Z 31001KT M03/M05 A3032 RMK A01 T10311053  RH  085%=      5-min Rain = 0
KWE1 091039Z 31001KT M03/M05 A3032 RMK A01 T10301052  RH  085%=      5-min Rain = 0
KWE1 091040Z 30001KT M03/M05 A3032 RMK A01 T10301053  RH  084%=      5-min Rain = 0
KWE1 091041Z 29001KT M03/M05 A3032 RMK A01 T10301053  RH  084%=      5-min Rain = 0
KWE1 091042Z 29001KT M03/M05 A3032 RMK A01 T10301053  RH  084%=      5-min Rain = 0
KWE1 091043Z 28001KT M03/M05 A3032 RMK A01 T10291053  RH  084%=      5-min Rain = 0
KWE1 091044Z 27001KT M03/M05 A3032 RMK A01 T10301053  RH  084%=      5-min Rain = 0
KWE1 091045Z 26001KT M03/M05 A3032 RMK A01 T10301053  RH  084%=      5-min Rain = 0
KWE1 091046Z 26001KT M03/M05 A3032 RMK A01 T10301053  RH  084%=      5-min Rain = 0
KWE1 091047Z 23001KT M03/M05 A3032 RMK A01 T10301054  RH  084%=      5-min Rain = 0
KWE1 091048Z 24001KT M03/M05 A3032 RMK A01 T10291054  RH  083%=      5-min Rain = 0
KWE1 091049Z 25001KT M03/M05 A3032 RMK A01 T10291054  RH  083%=      5-min Rain = 0
KWE1 091050Z 24002KT M03/M06 A3032 RMK A01 T10301055  RH  083%=      5-min Rain = 0
KWE1 091051Z 24003KT M03/M06 A3032 RMK A01 T10301055  RH  083%=      5-min Rain = 0
KWE1 091052Z 25003KT M03/M06 A3032 RMK A01 T10301055  RH  083%=      5-min Rain = 0
KWE1 091053Z 25003KT M03/M06 A3032 RMK A01 T10311057  RH  083%=      5-min Rain = 0
KWE1 091054Z 26002KT M03/M06 A3032 RMK A01 T10321057  RH  083%=      5-min Rain = 0
KWE1 091055Z 25002KT M03/M06 A3032 RMK A01 T10311056  RH  083%=      5-min Rain = 0
KWE1 091056Z 25002KT M03/M06 A3033 RMK A01 T10311055  RH  083%=      5-min Rain = 0
KWE1 091057Z 25002KT M03/M06 A3033 RMK A01 T10311055  RH  083%=      5-min Rain = 0
KWE1 091058Z 26002KT M03/M06 A3033 RMK A01 T10311056  RH  083%=      5-min Rain = 0
KWE1 091059Z 26002KT M03/M06 A3033 RMK A01 T10301056  RH  083%=      5-min Rain = 0
KWE1 091100Z 27002KT M03/M06 A3033 RMK A01 T10301055  RH  083%=      5-min Rain = 0
KWE1 091101Z 28001KT M03/M06 A3033 RMK A01 T10311056  RH  083%=      5-min Rain = 0
KWE1 091102Z 27001KT M03/M06 A3033 RMK A01 T10311056  RH  083%=      5-min Rain = 0
KWE1 091103Z 29001KT M03/M06 A3033 RMK A01 T10311056  RH  083%=      5-min Rain = 0
KWE1 091104Z 32001KT M03/M06 A3033 RMK A01 T10311056  RH  083%=      5-min Rain = 0
KWE1 091105Z 31002KT M03/M06 A3033 RMK A01 T10301055  RH  083%=      5-min Rain = 0
KWE1 091106Z 31002KT M03/M06 A3033 RMK A01 T10301055  RH  083%=      5-min Rain = 0
KWE1 091107Z 30002KT M03/M05 A3033 RMK A01 T10291054  RH  083%=      5-min Rain = 0
KWE1 091108Z 31001KT M03/M06 A3033 RMK A01 T10291055  RH  082%=      5-min Rain = 0
KWE1 091109Z 30001KT M03/M06 A3033 RMK A01 T10291055  RH  082%=      5-min Rain = 0
KWE1 091110Z 29001KT M03/M06 A3033 RMK A01 T10291055  RH  082%=      5-min Rain = 0
KWE1 091111Z 27001KT M03/M06 A3033 RMK A01 T10291056  RH  082%=      5-min Rain = 0
KWE1 091112Z 27001KT M03/M06 A3033 RMK A01 T10291056  RH  081%=      5-min Rain = 0
KWE1 091113Z 29001KT M03/M06 A3033 RMK A01 T10291056  RH  081%=      5-min Rain = 0
KWE1 091114Z 29001KT M03/M06 A3033 RMK A01 T10291057  RH  081%=      5-min Rain = 0
KWE1 091115Z 30001KT M03/M06 A3033 RMK A01 T10291057  RH  081%=      5-min Rain = 0
KWE1 091116Z 31002KT M03/M06 A3034 RMK A01 T10301057  RH  081%=      5-min Rain = 0
KWE1 091117Z 31001KT M03/M06 A3033 RMK A01 T10291057  RH  082%=      5-min Rain = 0
KWE1 091118Z 28000KT M03/M06 A3033 RMK A01 T10291056  RH  082%=      5-min Rain = 0
KWE1 091119Z 29001KT M03/M06 A3033 RMK A01 T10291057  RH  082%=      5-min Rain = 0
KWE1 091120Z 33000KT M03/M06 A3033 RMK A01 T10291056  RH  082%=      5-min Rain = 0
KWE1 091121Z 32000KT M03/M06 A3033 RMK A01 T10291056  RH  081%=      5-min Rain = 0
KWE1 091122Z 31001KT M03/M06 A3033 RMK A01 T10291057  RH  082%=      5-min Rain = 0
KWE1 091123Z 31001KT M03/M06 A3033 RMK A01 T10301057  RH  082%=      5-min Rain = 0
KWE1 091124Z 31001KT M03/M06 A3033 RMK A01 T10291057  RH  082%=      5-min Rain = 0
KWE1 091125Z 31001KT M03/M06 A3033 RMK A01 T10301057  RH  082%=      5-min Rain = 0
KWE1 091126Z 30001KT M03/M06 A3034 RMK A01 T10301057  RH  082%=      5-min Rain = 0
KWE1 091127Z 31002KT M03/M06 A3034 RMK A01 T10301057  RH  082%=      5-min Rain = 0
KWE1 091128Z 30001KT M03/M06 A3034 RMK A01 T10301057  RH  081%=      5-min Rain = 0
KWE1 091129Z 30001KT M03/M06 A3034 RMK A01 T10301057  RH  081%=      5-min Rain = 0
KWE1 091130Z 30002KT M03/M06 A3034 RMK A01 T10301057  RH  081%=      5-min Rain = 0
KWE1 091131Z 30001KT M03/M06 A3034 RMK A01 T10301058  RH  081%=      5-min Rain = 0
KWE1 091132Z 30002KT M03/M06 A3034 RMK A01 T10311058  RH  081%=      5-min Rain = 0
KWE1 091133Z 30003KT M03/M06 A3034 RMK A01 T10311058  RH  081%=      5-min Rain = 0
KWE1 091134Z 28002KT M03/M06 A3034 RMK A01 T10321059  RH  082%=      5-min Rain = 0
KWE1 091135Z 26002KT M03/M06 A3034 RMK A01 T10321059  RH  082%=      5-min Rain = 0
KWE1 091136Z 25002KT M03/M06 A3034 RMK A01 T10331060  RH  082%=      5-min Rain = 0
KWE1 091137Z 26001KT M03/M06 A3034 RMK A01 T10331059  RH  082%=      5-min Rain = 0
KWE1 091138Z 23001KT M03/M06 A3035 RMK A01 T10331059  RH  082%=      5-min Rain = 0
KWE1 091139Z 22001KT M03/M06 A3035 RMK A01 T10341059  RH  083%=      5-min Rain = 0
KWE1 091140Z 22002KT M03/M06 A3035 RMK A01 T10341059  RH  083%=      5-min Rain = 0
KWE1 091141Z 23002KT M04/M06 A3035 RMK A01 T10351060  RH  083%=      5-min Rain = 0
KWE1 091142Z 22001KT M04/M06 A3035 RMK A01 T10361061  RH  083%=      5-min Rain = 0
KWE1 091143Z 23002KT M04/M06 A3035 RMK A01 T10361062  RH  083%=      5-min Rain = 0
KWE1 091144Z 23003KT M04/M06 A3035 RMK A01 T10381063  RH  083%=      5-min Rain = 0
KWE1 091145Z 23003KT M04/M07 A3035 RMK A01 T10391065  RH  083%=      5-min Rain = 0
KWE1 091146Z 24003KT M04/M07 A3035 RMK A01 T10401065  RH  083%=      5-min Rain = 0
KWE1 091147Z 24003KT M04/M07 A3035 RMK A01 T10411065  RH  083%=      5-min Rain = 0
KWE1 091148Z 24003KT M04/M07 A3035 RMK A01 T10411065  RH  084%=      5-min Rain = 0
KWE1 091149Z 24003KT M04/M06 A3035 RMK A01 T10411064  RH  084%=      5-min Rain = 0
KWE1 091150Z 25003KT M04/M06 A3035 RMK A01 T10421064  RH  084%=      5-min Rain = 0
KWE1 091151Z 25003KT M04/M06 A3035 RMK A01 T10411063  RH  085%=      5-min Rain = 0
KWE1 091152Z 25003KT M04/M06 A3035 RMK A01 T10411063  RH  085%=      5-min Rain = 0
KWE1 091153Z 26002KT M04/M06 A3035 RMK A01 T10411062  RH  085%=      5-min Rain = 0
KWE1 091154Z 26003KT M04/M06 A3035 RMK A01 T10411062  RH  085%=      5-min Rain = 0
KWE1 091155Z 27003KT M04/M06 A3035 RMK A01 T10411062  RH  085%=      5-min Rain = 0
KWE1 091156Z 27003KT M04/M06 A3035 RMK A01 T10401061  RH  085%=      5-min Rain = 0
KWE1 091157Z 28003KT M04/M06 A3035 RMK A01 T10411062  RH  085%=      5-min Rain = 0
KWE1 091158Z 28003KT M04/M06 A3035 RMK A01 T10411062  RH  085%=      5-min Rain = 0
KWE1 091159Z 29003KT M04/M06 A3035 RMK A01 T10401062  RH  085%=      5-min Rain = 0
KWE1 091200Z 29003KT M04/M06 A3035 RMK A01 T10401061  RH  085%=      5-min Rain = 0
KWE1 091201Z 30003KT M04/M06 A3035 RMK A01 T10401062  RH  085%=      5-min Rain = 0
KWE1 091202Z 29003KT M04/M06 A3035 RMK A01 T10401062  RH  085%=      5-min Rain = 0
KWE1 091203Z 29003KT M04/M06 A3035 RMK A01 T10401061  RH  085%=      5-min Rain = 0
KWE1 091204Z 28003KT M04/M06 A3035 RMK A01 T10411062  RH  085%=      5-min Rain = 0
KWE1 091205Z 28003KT M04/M06 A3035 RMK A01 T10411062  RH  085%=      5-min Rain = 0
KWE1 091206Z 28003KT M04/M06 A3035 RMK A01 T10411062  RH  085%=      5-min Rain = 0
KWE1 091207Z 28003KT M04/M06 A3035 RMK A01 T10411062  RH  085%=      5-min Rain = 0
KWE1 091208Z 28003KT M04/M06 A3035 RMK A01 T10421063  RH  085%=      5-min Rain = 0
KWE1 091209Z 28003KT M04/M06 A3035 RMK A01 T10421063  RH  086%=      5-min Rain = 0
KWE1 091210Z 28003KT M04/M06 A3035 RMK A01 T10421063  RH  086%=      5-min Rain = 0
KWE1 091211Z 28003KT M04/M06 A3035 RMK A01 T10421062  RH  086%=      5-min Rain = 0
KWE1 091212Z 28003KT M04/M06 A3035 RMK A01 T10421063  RH  086%=      5-min Rain = 0
KWE1 091213Z 28003KT M04/M06 A3035 RMK A01 T10421063  RH  086%=      5-min Rain = 0
KWE1 091214Z 28004KT M04/M06 A3035 RMK A01 T10431063  RH  086%=      5-min Rain = 0
KWE1 091215Z 28004KT M04/M06 A3036 RMK A01 T10431063  RH  086%=      5-min Rain = 0
KWE1 091216Z 28004KT M04/M06 A3036 RMK A01 T10431064  RH  086%=      5-min Rain = 0
KWE1 091217Z 28003KT M04/M06 A3036 RMK A01 T10431064  RH  086%=      5-min Rain = 0
KWE1 091218Z 28004KT M04/M06 A3036 RMK A01 T10431063  RH  086%=      5-min Rain = 0
KWE1 091219Z 28004KT M04/M06 A3036 RMK A01 T10431063  RH  086%=      5-min Rain = 0
KWE1 091220Z 28004KT M04/M06 A3036 RMK A01 T10431064  RH  086%=      5-min Rain = 0
KWE1 091221Z 29004KT M04/M06 A3036 RMK A01 T10431064  RH  085%=      5-min Rain = 0
KWE1 091222Z 29003KT M04/M06 A3036 RMK A01 T10421063  RH  085%=      5-min Rain = 0
KWE1 091223Z 29003KT M04/M06 A3036 RMK A01 T10431064  RH  085%=      5-min Rain = 0
KWE1 091224Z 29003KT M04/M06 A3036 RMK A01 T10431064  RH  085%=      5-min Rain = 0
KWE1 091225Z 29003KT M04/M06 A3036 RMK A01 T10431064  RH  085%=      5-min Rain = 0
KWE1 091226Z 28003KT M04/M06 A3036 RMK A01 T10431064  RH  085%=      5-min Rain = 0
KWE1 091227Z 28003KT M04/M06 A3036 RMK A01 T10431064  RH  085%=      5-min Rain = 0
KWE1 091228Z 28003KT M04/M06 A3036 RMK A01 T10431064  RH  085%=      5-min Rain = 0
KWE1 091229Z 27003KT M04/M06 A3036 RMK A01 T10431064  RH  085%=      5-min Rain = 0
KWE1 091230Z 27003KT M04/M06 A3036 RMK A01 T10421064  RH  085%=      5-min Rain = 0
KWE1 091231Z 26002KT M04/M06 A3036 RMK A01 T10421064  RH  085%=      5-min Rain = 0
KWE1 091232Z 26002KT M04/M06 A3036 RMK A01 T10421063  RH  085%=      5-min Rain = 0
KWE1 091233Z 27002KT M04/M06 A3036 RMK A01 T10421063  RH  085%=      5-min Rain = 0
KWE1 091234Z 26002KT M04/M06 A3036 RMK A01 T10411063  RH  085%=      5-min Rain = 0
KWE1 091235Z 27002KT M04/M06 A3036 RMK A01 T10411063  RH  085%=      5-min Rain = 0
KWE1 091236Z 28003KT M04/M06 A3036 RMK A01 T10411063  RH  085%=      5-min Rain = 0
KWE1 091237Z 28002KT M04/M06 A3036 RMK A01 T10411063  RH  085%=      5-min Rain = 0
KWE1 091238Z 28002KT M04/M06 A3036 RMK A01 T10411063  RH  085%=      5-min Rain = 0
KWE1 091239Z 28002KT M04/M06 A3036 RMK A01 T10411063  RH  085%=      5-min Rain = 0
KWE1 091240Z 28002KT M04/M06 A3036 RMK A01 T10421064  RH  085%=      5-min Rain = 0
KWE1 091241Z 28002KT M04/M06 A3036 RMK A01 T10421064  RH  085%=      5-min Rain = 0
KWE1 091242Z 26001KT M04/M06 A3037 RMK A01 T10421064  RH  085%=      5-min Rain = 0
KWE1 091243Z 26002KT M04/M06 A3037 RMK A01 T10421064  RH  085%=      5-min Rain = 0
KWE1 091244Z 25002KT M04/M06 A3037 RMK A01 T10421064  RH  085%=      5-min Rain = 0
KWE1 091245Z 25002KT M04/M06 A3037 RMK A01 T10421064  RH  085%=      5-min Rain = 0
KWE1 091246Z 25003KT M04/M06 A3037 RMK A01 T10421064  RH  085%=      5-min Rain = 0
KWE1 091247Z 25003KT M04/M06 A3037 RMK A01 T10421064  RH  085%=      5-min Rain = 0
KWE1 091248Z 25003KT M04/M06 A3037 RMK A01 T10421064  RH  085%=      5-min Rain = 0
KWE1 091249Z 25003KT M04/M06 A3037 RMK A01 T10421064  RH  085%=      5-min Rain = 0
KWE1 091250Z 25003KT M04/M06 A3037 RMK A01 T10421064  RH  085%=      5-min Rain = 0
KWE1 091251Z 25003KT M04/M07 A3037 RMK A01 T10431065  RH  084%=      5-min Rain = 0
KWE1 091252Z 25002KT M04/M07 A3037 RMK A01 T10431065  RH  084%=      5-min Rain = 0
KWE1 091253Z 25002KT M04/M07 A3037 RMK A01 T10431066  RH  084%=      5-min Rain = 0
KWE1 091254Z 24002KT M04/M07 A3037 RMK A01 T10431066  RH  084%=      5-min Rain = 0
KWE1 091255Z 24002KT M04/M07 A3037 RMK A01 T10431066  RH  085%=      5-min Rain = 0
KWE1 091256Z 24002KT M04/M07 A3037 RMK A01 T10441066  RH  085%=      5-min Rain = 0
KWE1 091257Z 25002KT M04/M07 A3037 RMK A01 T10441066  RH  085%=      5-min Rain = 0
KWE1 091258Z 25003KT M04/M07 A3037 RMK A01 T10441066  RH  085%=      5-min Rain = 0
KWE1 091259Z 24003KT M04/M07 A3037 RMK A01 T10441066  RH  085%=      5-min Rain = 0
KWE1 091300Z 25003KT M04/M07 A3037 RMK A01 T10441066  RH  085%=      5-min Rain = 0
KWE1 091301Z 25003KT M04/M07 A3037 RMK A01 T10441066  RH  085%=      5-min Rain = 0
KWE1 091302Z 25003KT M04/M07 A3037 RMK A01 T10441066  RH  084%=      5-min Rain = 0
KWE1 091303Z 25003KT M04/M07 A3037 RMK A01 T10441066  RH  084%=      5-min Rain = 0
KWE1 091304Z 26003KT M04/M07 A3037 RMK A01 T10441066  RH  084%=      5-min Rain = 0
KWE1 091305Z 26003KT M04/M07 A3037 RMK A01 T10431066  RH  084%=      5-min Rain = 0
KWE1 091306Z 27003KT M04/M07 A3037 RMK A01 T10431065  RH  084%=      5-min Rain = 0
KWE1 091307Z 27003KT M04/M07 A3037 RMK A01 T10431065  RH  084%=      5-min Rain = 0
KWE1 091308Z 27003KT M04/M07 A3037 RMK A01 T10431065  RH  084%=      5-min Rain = 0
KWE1 091309Z 27003KT M04/M07 A3037 RMK A01 T10431066  RH  084%=      5-min Rain = 0
KWE1 091310Z 28003KT M04/M07 A3037 RMK A01 T10421066  RH  084%=      5-min Rain = 0
KWE1 091311Z 28003KT M04/M07 A3037 RMK A01 T10431066  RH  084%=      5-min Rain = 0
KWE1 091312Z 28003KT M04/M07 A3037 RMK A01 T10431067  RH  083%=      5-min Rain = 0
KWE1 091313Z 28003KT M04/M07 A3037 RMK A01 T10421066  RH  083%=      5-min Rain = 0
KWE1 091314Z 28004KT M04/M07 A3037 RMK A01 T10421067  RH  083%=      5-min Rain = 0
KWE1 091315Z 28003KT M04/M07 A3037 RMK A01 T10421067  RH  083%=      5-min Rain = 0
KWE1 091316Z 29003KT M04/M07 A3037 RMK A01 T10421067  RH  083%=      5-min Rain = 0
KWE1 091317Z 29003KT M04/M07 A3038 RMK A01 T10431068  RH  083%=      5-min Rain = 0
KWE1 091318Z 29003KT M04/M07 A3038 RMK A01 T10431067  RH  083%=      5-min Rain = 0
KWE1 091319Z 29003KT M04/M07 A3037 RMK A01 T10431068  RH  083%=      5-min Rain = 0
KWE1 091320Z 29003KT M04/M07 A3037 RMK A01 T10431068  RH  083%=      5-min Rain = 0
KWE1 091321Z 29004KT M04/M07 A3037 RMK A01 T10431068  RH  083%=      5-min Rain = 0
KWE1 091322Z 29004KT M04/M07 A3037 RMK A01 T10431068  RH  083%=      5-min Rain = 0
KWE1 091323Z 30004KT M04/M07 A3037 RMK A01 T10431068  RH  083%=      5-min Rain = 0
KWE1 091324Z 30004KT M04/M07 A3037 RMK A01 T10431068  RH  083%=      5-min Rain = 0
KWE1 091325Z 30004KT M04/M07 A3037 RMK A01 T10441069  RH  083%=      5-min Rain = 0
KWE1 091326Z 30004KT M04/M07 A3037 RMK A01 T10441069  RH  083%=      5-min Rain = 0
KWE1 091327Z 30004KT M04/M07 A3037 RMK A01 T10431068  RH  083%=      5-min Rain = 0
KWE1 091328Z 30004KT M04/M07 A3037 RMK A01 T10441069  RH  083%=      5-min Rain = 0
KWE1 091329Z 30005KT M04/M07 A3038 RMK A01 T10441069  RH  083%=      5-min Rain = 0
KWE1 091330Z 30004KT M04/M07 A3038 RMK A01 T10441069  RH  083%=      5-min Rain = 0
KWE1 091331Z 30004KT M05/M07 A3038 RMK A01 T10451070  RH  083%=      5-min Rain = 0
KWE1 091332Z 30004KT M05/M07 A3038 RMK A01 T10451070  RH  083%=      5-min Rain = 0
KWE1 091333Z 30004KT M05/M07 A3038 RMK A01 T10451070  RH  083%=      5-min Rain = 0
KWE1 091334Z 30004KT M05/M07 A3038 RMK A01 T10451070  RH  083%=      5-min Rain = 0
KWE1 091335Z 30004KT M05/M07 A3038 RMK A01 T10451070  RH  083%=      5-min Rain = 0
KWE1 091336Z 30004KT M05/M07 A3038 RMK A01 T10451070  RH  083%=      5-min Rain = 0
KWE1 091337Z 30004KT M05/M07 A3038 RMK A01 T10461070  RH  083%=      5-min Rain = 0
KWE1 091338Z 30003KT M05/M07 A3038 RMK A01 T10461070  RH  083%=      5-min Rain = 0
KWE1 091339Z 29003KT M05/M07 A3038 RMK A01 T10461071  RH  083%=      5-min Rain = 0
KWE1 091340Z 29004KT M05/M07 A3038 RMK A01 T10461070  RH  083%=      5-min Rain = 0
KWE1 091341Z 30004KT M05/M07 A3038 RMK A01 T10461070  RH  083%=      5-min Rain = 0
KWE1 091342Z 29004KT M05/M07 A3038 RMK A01 T10461070  RH  083%=      5-min Rain = 0
KWE1 091343Z 29004KT M05/M07 A3038 RMK A01 T10461070  RH  083%=      5-min Rain = 0
KWE1 091344Z 30004KT M05/M07 A3038 RMK A01 T10461070  RH  083%=      5-min Rain = 0
KWE1 091345Z 30004KT M05/M07 A3038 RMK A01 T10471071  RH  083%=      5-min Rain = 0
KWE1 091346Z 30005KT M05/M07 A3038 RMK A01 T10471071  RH  083%=      5-min Rain = 0
KWE1 091347Z 30005KT M05/M07 A3038 RMK A01 T10471070  RH  083%=      5-min Rain = 0
KWE1 091348Z 30005KT M05/M07 A3038 RMK A01 T10471071  RH  083%=      5-min Rain = 0
KWE1 091349Z 30005KT M05/M07 A3038 RMK A01 T10471071  RH  083%=      5-min Rain = 0
KWE1 091350Z 30005KT M05/M07 A3038 RMK A01 T10471071  RH  083%=      5-min Rain = 0
KWE1 091351Z 30005KT M05/M07 A3038 RMK A01 T10471071  RH  083%=      5-min Rain = 0
KWE1 091352Z 29005KT M05/M07 A3038 RMK A01 T10471071  RH  083%=      5-min Rain = 0
KWE1 091353Z 29004KT M05/M07 A3039 RMK A01 T10471071  RH  083%=      5-min Rain = 0
KWE1 091354Z 29004KT M05/M07 A3039 RMK A01 T10471071  RH  083%=      5-min Rain = 0
KWE1 091355Z 29004KT M05/M07 A3039 RMK A01 T10471071  RH  083%=      5-min Rain = 0
KWE1 091356Z 29004KT M05/M07 A3039 RMK A01 T10481071  RH  083%=      5-min Rain = 0
KWE1 091357Z 29003KT M05/M07 A3039 RMK A01 T10471071  RH  083%=      5-min Rain = 0
KWE1 091358Z 29003KT M05/M07 A3039 RMK A01 T10471071  RH  084%=      5-min Rain = 0
KWE1 091359Z 29003KT M05/M07 A3039 RMK A01 T10471071  RH  084%=      5-min Rain = 0
KWE1 091400Z 29003KT M05/M07 A3039 RMK A01 T10471071  RH  084%=      5-min Rain = 0
KWE1 091401Z 30003KT M05/M07 A3039 RMK A01 T10471071  RH  084%=      5-min Rain = 0
KWE1 091402Z 30003KT M05/M07 A3039 RMK A01 T10471071  RH  083%=      5-min Rain = 0
KWE1 091403Z 29003KT M05/M07 A3039 RMK A01 T10471071  RH  083%=      5-min Rain = 0
KWE1 091404Z 29003KT M05/M07 A3039 RMK A01 T10471071  RH  083%=      5-min Rain = 0
KWE1 091405Z 29003KT M05/M07 A3038 RMK A01 T10471071  RH  083%=      5-min Rain = 0
KWE1 091406Z 29003KT M05/M07 A3038 RMK A01 T10471071  RH  083%=      5-min Rain = 0
KWE1 091407Z 29003KT M05/M07 A3038 RMK A01 T10471071  RH  083%=      5-min Rain = 0
KWE1 091408Z 29003KT M05/M07 A3039 RMK A01 T10471071  RH  083%=      5-min Rain = 0
KWE1 091409Z 29003KT M05/M07 A3039 RMK A01 T10471071  RH  083%=      5-min Rain = 0
KWE1 091410Z 29003KT M05/M07 A3039 RMK A01 T10471071  RH  083%=      5-min Rain = 0
KWE1 091411Z 29003KT M05/M07 A3039 RMK A01 T10471071  RH  083%=      5-min Rain = 0
KWE1 091412Z 30004KT M05/M07 A3039 RMK A01 T10471071  RH  083%=      5-min Rain = 0
KWE1 091413Z 30003KT M05/M07 A3039 RMK A01 T10471071  RH  084%=      5-min Rain = 0
KWE1 091414Z 30004KT M05/M07 A3039 RMK A01 T10461070  RH  084%=      5-min Rain = 0
KWE1 091415Z 31003KT M05/M07 A3039 RMK A01 T10461070  RH  083%=      5-min Rain = 0
KWE1 091416Z 31003KT M05/M07 A3039 RMK A01 T10461070  RH  083%=      5-min Rain = 0
KWE1 091417Z 30003KT M05/M07 A3039 RMK A01 T10451069  RH  083%=      5-min Rain = 0
KWE1 091418Z 30003KT M05/M07 A3039 RMK A01 T10451069  RH  083%=      5-min Rain = 0
KWE1 091419Z 29003KT M04/M07 A3039 RMK A01 T10441068  RH  083%=      5-min Rain = 0
KWE1 091420Z 29003KT M04/M07 A3039 RMK A01 T10441068  RH  083%=      5-min Rain = 0
KWE1 091421Z 29003KT M04/M07 A3039 RMK A01 T10431068  RH  083%=      5-min Rain = 0
KWE1 091422Z 29003KT M04/M07 A3039 RMK A01 T10421067  RH  083%=      5-min Rain = 0
KWE1 091423Z 29002KT M04/M07 A3039 RMK A01 T10411066  RH  083%=      5-min Rain = 0
KWE1 091424Z 28002KT M04/M07 A3039 RMK A01 T10411066  RH  083%=      5-min Rain = 0
KWE1 091425Z 28003KT M04/M07 A3039 RMK A01 T10401065  RH  083%=      5-min Rain = 0
KWE1 091426Z 29003KT M04/M06 A3039 RMK A01 T10391064  RH  082%=      5-min Rain = 0
KWE1 091427Z 29003KT M04/M06 A3039 RMK A01 T10381064  RH  082%=      5-min Rain = 0
KWE1 091428Z 30003KT M04/M06 A3039 RMK A01 T10371063  RH  082%=      5-min Rain = 0
KWE1 091429Z 30003KT M04/M06 A3039 RMK A01 T10361063  RH  082%=      5-min Rain = 0
KWE1 091430Z 30002KT M04/M06 A3039 RMK A01 T10351062  RH  081%=      5-min Rain = 0
KWE1 091431Z 30002KT M03/M06 A3039 RMK A01 T10341062  RH  081%=      5-min Rain = 0
KWE1 091432Z 29002KT M03/M06 A3039 RMK A01 T10331061  RH  081%=      5-min Rain = 0
KWE1 091433Z 29003KT M03/M06 A3039 RMK A01 T10331061  RH  081%=      5-min Rain = 0
KWE1 091434Z 29002KT M03/M06 A3039 RMK A01 T10321062  RH  080%=      5-min Rain = 0
KWE1 091435Z 28002KT M03/M06 A3039 RMK A01 T10321061  RH  080%=      5-min Rain = 0
KWE1 091436Z 28002KT M03/M06 A304 RMK A01 T10311061  RH  080%=      5-min Rain = 0
KWE1 091437Z 28003KT M03/M06 A304 RMK A01 T10311061  RH  080%=      5-min Rain = 0
KWE1 091438Z 29003KT M03/M06 A304 RMK A01 T10311061  RH  080%=      5-min Rain = 0
KWE1 091439Z 29003KT M03/M06 A304 RMK A01 T10311062  RH  079%=      5-min Rain = 0
KWE1 091440Z 29003KT M03/M06 A304 RMK A01 T10311062  RH  079%=      5-min Rain = 0
KWE1 091441Z 29003KT M03/M06 A304 RMK A01 T10301061  RH  079%=      5-min Rain = 0
KWE1 091442Z 29003KT M03/M06 A304 RMK A01 T10301061  RH  079%=      5-min Rain = 0
KWE1 091443Z 29003KT M03/M06 A304 RMK A01 T10301061  RH  079%=      5-min Rain = 0
KWE1 091444Z 29002KT M03/M06 A304 RMK A01 T10291060  RH  079%=      5-min Rain = 0
KWE1 091445Z 29003KT M03/M06 A304 RMK A01 T10291059  RH  080%=      5-min Rain = 0
KWE1 091446Z 29003KT M03/M06 A304 RMK A01 T10281059  RH  080%=      5-min Rain = 0
KWE1 091447Z 29003KT M03/M06 A304 RMK A01 T10281059  RH  079%=      5-min Rain = 0
KWE1 091448Z 30002KT M03/M06 A304 RMK A01 T10281059  RH  079%=      5-min Rain = 0
KWE1 091449Z 31003KT M03/M06 A304 RMK A01 T10281059  RH  079%=      5-min Rain = 0
KWE1 091450Z 31002KT M03/M06 A304 RMK A01 T10281059  RH  079%=      5-min Rain = 0
KWE1 091451Z 31001KT M03/M06 A304 RMK A01 T10271058  RH  079%=      5-min Rain = 0
KWE1 091452Z 32003KT M03/M06 A304 RMK A01 T10261057  RH  079%=      5-min Rain = 0
KWE1 091453Z 31003KT M03/M06 A304 RMK A01 T10251055  RH  080%=      5-min Rain = 0
KWE1 091454Z 31003KT M02/M05 A304 RMK A01 T10241054  RH  080%=      5-min Rain = 0
KWE1 091455Z 31003KT M02/M05 A304 RMK A01 T10231053  RH  080%=      5-min Rain = 0
KWE1 091456Z 31003KT M02/M05 A304 RMK A01 T10221053  RH  079%=      5-min Rain = 0
KWE1 091457Z 31003KT M02/M05 A304 RMK A01 T10211054  RH  078%=      5-min Rain = 0
KWE1 091458Z 30003KT M02/M06 A304 RMK A01 T10201055  RH  077%=      5-min Rain = 0
KWE1 091459Z 30004KT M02/M06 A304 RMK A01 T10201055  RH  077%=      5-min Rain = 0
KWE1 091500Z 30004KT M02/M06 A304 RMK A01 T10201055  RH  077%=      5-min Rain = 0
KWE1 091501Z 31004KT M02/M06 A304 RMK A01 T10201055  RH  077%=      5-min Rain = 0
KWE1 091502Z 30004KT M02/M06 A304 RMK A01 T10191055  RH  077%=      5-min Rain = 0
KWE1 091503Z 30004KT M02/M06 A304 RMK A01 T10191056  RH  076%=      5-min Rain = 0
KWE1 091504Z 30004KT M02/M06 A3041 RMK A01 T10191056  RH  076%=      5-min Rain = 0
KWE1 091505Z 29003KT M02/M06 A3041 RMK A01 T10191055  RH  076%=      5-min Rain = 0
KWE1 091506Z 29004KT M02/M05 A3041 RMK A01 T10191054  RH  077%=      5-min Rain = 0
KWE1 091507Z 29004KT M02/M05 A3041 RMK A01 T10191054  RH  077%=      5-min Rain = 0
KWE1 091508Z 29005KT M02/M06 A3041 RMK A01 T10191055  RH  076%=      5-min Rain = 0
KWE1 091509Z 29004KT M02/M06 A3041 RMK A01 T10191055  RH  076%=      5-min Rain = 0
KWE1 091510Z 29004KT M02/M06 A3041 RMK A01 T10181055  RH  076%=      5-min Rain = 0
KWE1 091511Z 29004KT M02/M06 A3041 RMK A01 T10181056  RH  076%=      5-min Rain = 0
KWE1 091512Z 30004KT M02/M06 A3041 RMK A01 T10181056  RH  075%=      5-min Rain = 0
KWE1 091513Z 29004KT M02/M06 A3041 RMK A01 T10181055  RH  076%=      5-min Rain = 0
KWE1 091514Z 29003KT M02/M06 A3041 RMK A01 T10181056  RH  075%=      5-min Rain = 0
KWE1 091515Z 30004KT M02/M06 A3041 RMK A01 T10171055  RH  075%=      5-min Rain = 0
KWE1 091516Z 29004KT M02/M06 A3041 RMK A01 T10171055  RH  075%=      5-min Rain = 0
KWE1 091517Z 29003KT M02/M06 A3041 RMK A01 T10161056  RH  074%=      5-min Rain = 0
KWE1 091518Z 29003KT M02/M05 A3041 RMK A01 T10151054  RH  075%=      5-min Rain = 0
KWE1 091519Z 29004KT M02/M05 A3041 RMK A01 T10151053  RH  075%=      5-min Rain = 0
KWE1 091520Z 29004KT M02/M06 A3041 RMK A01 T10161055  RH  075%=      5-min Rain = 0
KWE1 091521Z 29004KT M02/M06 A3041 RMK A01 T10161055  RH  075%=      5-min Rain = 0
KWE1 091522Z 29004KT M02/M05 A3041 RMK A01 T10151053  RH  075%=      5-min Rain = 0
KWE1 091523Z 30003KT M02/M05 A3041 RMK A01 T10151052  RH  076%=      5-min Rain = 0
KWE1 091524Z 30004KT M01/M05 A3041 RMK A01 T10141051  RH  076%=      5-min Rain = 0
KWE1 091525Z 30004KT M01/M05 A3041 RMK A01 T10141051  RH  076%=      5-min Rain = 0
KWE1 091526Z 30004KT M01/M05 A3041 RMK A01 T10141051  RH  076%=      5-min Rain = 0
KWE1 091527Z 30004KT M01/M05 A3041 RMK A01 T10141052  RH  075%=      5-min Rain = 0
KWE1 091528Z 30004KT M01/M05 A3041 RMK A01 T10131051  RH  075%=      5-min Rain = 0
KWE1 091529Z 30004KT M01/M05 A3041 RMK A01 T10131049  RH  076%=      5-min Rain = 0
KWE1 091530Z 31003KT M01/M05 A3041 RMK A01 T10121048  RH  076%=      5-min Rain = 0
KWE1 091531Z 32004KT M01/M05 A3041 RMK A01 T10101047  RH  077%=      5-min Rain = 0
KWE1 091532Z 32004KT M01/M05 A3041 RMK A01 T10091047  RH  076%=      5-min Rain = 0
KWE1 091533Z 32005KT M01/M05 A3041 RMK A01 T10091050  RH  074%=      5-min Rain = 0
KWE1 091534Z 32006KT M01/M05 A3041 RMK A01 T10081051  RH  073%=      5-min Rain = 0
KWE1 091535Z 32005KT M01/M05 A3042 RMK A01 T10081053  RH  071%=      5-min Rain = 0
KWE1 091536Z 32005KT M01/M05 A3042 RMK A01 T10081054  RH  071%=      5-min Rain = 0
KWE1 091537Z 32005KT M01/M05 A3042 RMK A01 T10071053  RH  071%=      5-min Rain = 0
KWE1 091538Z 32006KT M01/M05 A3042 RMK A01 T10071053  RH  071%=      5-min Rain = 0
KWE1 091539Z 32005KT M01/M05 A3042 RMK A01 T10071054  RH  070%=      5-min Rain = 0
KWE1 091540Z 32007KT M01/M05 A3042 RMK A01 T10071054  RH  070%=      5-min Rain = 0
KWE1 091541Z 32006KT M01/M06 A3042 RMK A01 T10071056  RH  069%=      5-min Rain = 0
KWE1 091542Z 32005KT M01/M06 A3042 RMK A01 T10071056  RH  070%=      5-min Rain = 0
KWE1 091543Z 32005KT M01/M05 A3042 RMK A01 T10061053  RH  070%=      5-min Rain = 0
KWE1 091544Z 32005KT M01/M05 A3042 RMK A01 T10051052  RH  071%=      5-min Rain = 0
KWE1 091545Z 32006KT M01/M05 A3042 RMK A01 T10061053  RH  070%=      5-min Rain = 0
KWE1 091546Z 32006KT M01/M05 A3042 RMK A01 T10051054  RH  070%=      5-min Rain = 0
KWE1 091547Z 32005KT M01/M05 A3042 RMK A01 T10061054  RH  070%=      5-min Rain = 0
KWE1 091548Z 32005KT M01/M05 A3042 RMK A01 T10051052  RH  070%=      5-min Rain = 0
KWE1 091549Z 32005KT M01/M05 A3042 RMK A01 T10051053  RH  070%=      5-min Rain = 0
KWE1 091550Z 32005KT M00/M05 A3042 RMK A01 T10041051  RH  070%=      5-min Rain = 0
KWE1 091551Z 33005KT M00/M05 A3042 RMK A01 T10041051  RH  070%=      5-min Rain = 0
KWE1 091552Z 33004KT M00/M05 A3042 RMK A01 T10041051  RH  070%=      5-min Rain = 0
KWE1 091553Z 33005KT M00/M05 A3042 RMK A01 T10031051  RH  070%=      5-min Rain = 0
KWE1 091554Z 32005KT M00/M05 A3042 RMK A01 T10031052  RH  070%=      5-min Rain = 0
KWE1 091555Z 32005KT M00/M05 A3042 RMK A01 T10031052  RH  070%=      5-min Rain = 0
KWE1 091556Z 33004KT M00/M05 A3042 RMK A01 T10031051  RH  070%=      5-min Rain = 0
KWE1 091557Z 32005KT M00/M05 A3042 RMK A01 T10021049  RH  070%=      5-min Rain = 0
KWE1 091558Z 32006KT M00/M05 A3042 RMK A01 T10021049  RH  070%=      5-min Rain = 0
KWE1 091559Z 33005KT M00/M05 A3042 RMK A01 T10021052  RH  069%=      5-min Rain = 0
KWE1 091600Z 32006KT M00/M05 A3042 RMK A01 T10031053  RH  069%=      5-min Rain = 0
KWE1 091601Z 32005KT M00/M05 A3042 RMK A01 T10031054  RH  068%=      5-min Rain = 0.01
KWE1 091602Z 32005KT M00/M05 A3042 RMK A01 T10031053  RH  069%=      5-min Rain = 0
KWE1 091603Z 32005KT M00/M05 A3042 RMK A01 T10021052  RH  069%=      5-min Rain = 0
KWE1 091604Z 32004KT M00/M05 A3042 RMK A01 T10021050  RH  070%=      5-min Rain = 0
KWE1 091605Z 31006KT M00/M05 A3043 RMK A01 T10011049  RH  070%=      5-min Rain = 0
KWE1 091606Z 32006KT M00/M05 A3043 RMK A01 T10011051  RH  069%=      5-min Rain = 0
KWE1 091607Z 32005KT M00/M05 A3043 RMK A01 T10011051  RH  069%=      5-min Rain = 0
KWE1 091608Z 32006KT M00/M05 A3043 RMK A01 T10011049  RH  070%=      5-min Rain = 0
KWE1 091609Z 32006KT M00/M05 A3043 RMK A01 T10011049  RH  070%=      5-min Rain = 0
KWE1 091610Z 32005KT M00/M05 A3043 RMK A01 T10011050  RH  070%=      5-min Rain = 0
KWE1 091611Z 32005KT M00/M05 A3043 RMK A01 T10011050  RH  069%=      5-min Rain = 0
KWE1 091612Z 32005KT M00/M05 A3043 RMK A01 T10011050  RH  070%=      5-min Rain = 0
KWE1 091613Z 32007KT 00/05 A3043 RMK A01 T00-00-49  RH  070%=      5-min Rain = 0
KWE1 091614Z 32006KT 00/05 A3043 RMK A01 T00000-50  RH  069%=      5-min Rain = 0
KWE1 091615Z 31007KT M00/M05 A3043 RMK A01 T10011051  RH  069%=      5-min Rain = 0
KWE1 091616Z 32006KT M00/M05 A3043 RMK A01 T10011051  RH  069%=      5-min Rain = 0
KWE1 091617Z 32006KT M00/M05 A3043 RMK A01 T10011052  RH  069%=      5-min Rain = 0
KWE1 091618Z 32007KT 00/05 A3043 RMK A01 T00-00-51  RH  069%=      5-min Rain = 0
KWE1 091619Z 32006KT M00/M05 A3043 RMK A01 T10011053  RH  068%=      5-min Rain = 0
KWE1 091620Z 32006KT 00/05 A3043 RMK A01 T00-00-50  RH  069%=      5-min Rain = 0
KWE1 091621Z 32006KT 00/05 A3043 RMK A01 T00000-49  RH  070%=      5-min Rain = 0
KWE1 091622Z 32004KT 00/M05 A3043 RMK A01 T00011048  RH  070%=      5-min Rain = 0
KWE1 091623Z 33004KT 00/M05 A3043 RMK A01 T00021045  RH  071%=      5-min Rain = 0
KWE1 091624Z 33006KT 00/M05 A3043 RMK A01 T00031046  RH  070%=      5-min Rain = 0
KWE1 091625Z 33005KT 00/M05 A3043 RMK A01 T00031047  RH  069%=      5-min Rain = 0
KWE1 091626Z 32004KT 00/M05 A3043 RMK A01 T00021048  RH  069%=      5-min Rain = 0
KWE1 091627Z 32005KT 00/M05 A3043 RMK A01 T00031045  RH  070%=      5-min Rain = 0
KWE1 091628Z 32005KT 00/M05 A3043 RMK A01 T00031046  RH  070%=      5-min Rain = 0
KWE1 091629Z 32005KT 00/M05 A3043 RMK A01 T00031046  RH  070%=      5-min Rain = 0
KWE1 091630Z 33005KT 00/M05 A3043 RMK A01 T00031046  RH  069%=      5-min Rain = 0
KWE1 091631Z 33005KT 00/M05 A3044 RMK A01 T00031045  RH  070%=      5-min Rain = 0
KWE1 091632Z 33005KT 00/M05 A3044 RMK A01 T00041045  RH  070%=      5-min Rain = 0
KWE1 091633Z 33005KT 00/M04 A3044 RMK A01 T00041043  RH  071%=      5-min Rain = 0
KWE1 091634Z 33005KT 01/M04 A3044 RMK A01 T00051041  RH  071%=      5-min Rain = 0
KWE1 091635Z 33006KT 01/M04 A3044 RMK A01 T00051041  RH  071%=      5-min Rain = 0
KWE1 091636Z 33008KT 01/M04 A3044 RMK A01 T00061042  RH  070%=      5-min Rain = 0
KWE1 091637Z 33007KT 01/M05 A3044 RMK A01 T00051045  RH  069%=      5-min Rain = 0
KWE1 091638Z 33006KT 01/M05 A3044 RMK A01 T00051045  RH  069%=      5-min Rain = 0
KWE1 091639Z 33005KT 00/M04 A3044 RMK A01 T00041044  RH  070%=      5-min Rain = 0
KWE1 091640Z 32005KT 01/M04 A3044 RMK A01 T00051043  RH  070%=      5-min Rain = 0
KWE1 091641Z 32006KT 01/M04 A3044 RMK A01 T00061041  RH  071%=      5-min Rain = 0
KWE1 091642Z 33005KT 01/M04 A3044 RMK A01 T00061041  RH  070%=      5-min Rain = 0
KWE1 091643Z 32005KT 01/M04 A3044 RMK A01 T00061042  RH  070%=      5-min Rain = 0
KWE1 091644Z 32005KT 01/M04 A3044 RMK A01 T00061043  RH  070%=      5-min Rain = 0
KWE1 091645Z 32004KT 01/M04 A3044 RMK A01 T00061044  RH  069%=      5-min Rain = 0
KWE1 091646Z 32005KT 01/M04 A3044 RMK A01 T00061043  RH  070%=      5-min Rain = 0
KWE1 091647Z 32005KT 01/M04 A3044 RMK A01 T00061042  RH  070%=      5-min Rain = 0
KWE1 091648Z 33004KT 01/M04 A3044 RMK A01 T00071040  RH  071%=      5-min Rain = 0
KWE1 091649Z 32004KT 01/M04 A3044 RMK A01 T00081037  RH  072%=      5-min Rain = 0
KWE1 091650Z 33006KT 01/M04 A3043 RMK A01 T00091038  RH  071%=      5-min Rain = 0
KWE1 091651Z 32006KT 01/M04 A3043 RMK A01 T00081042  RH  069%=      5-min Rain = 0
KWE1 091652Z 32005KT 01/M04 A3043 RMK A01 T00071043  RH  069%=      5-min Rain = 0
KWE1 091653Z 33005KT 01/M04 A3043 RMK A01 T00071042  RH  070%=      5-min Rain = 0
KWE1 091654Z 33006KT 01/M04 A3043 RMK A01 T00071040  RH  071%=      5-min Rain = 0
KWE1 091655Z 33005KT 01/M04 A3043 RMK A01 T00081040  RH  070%=      5-min Rain = 0
KWE1 091656Z 33006KT 01/M04 A3043 RMK A01 T00071041  RH  070%=      5-min Rain = 0
KWE1 091657Z 33006KT 01/M04 A3043 RMK A01 T00081041  RH  070%=      5-min Rain = 0
KWE1 091658Z 33004KT 01/M04 A3043 RMK A01 T00081040  RH  070%=      5-min Rain = 0
KWE1 091659Z 33004KT 01/M04 A3043 RMK A01 T00091036  RH  072%=      5-min Rain = 0
KWE1 091700Z 33005KT 01/M04 A3043 RMK A01 T00101037  RH  071%=      5-min Rain = 0
KWE1 091701Z 34005KT 01/M04 A3043 RMK A01 T00101037  RH  071%=      5-min Rain = 0
KWE1 091702Z 33005KT 01/M04 A3043 RMK A01 T00101037  RH  071%=      5-min Rain = 0
KWE1 091703Z 33004KT 01/M04 A3043 RMK A01 T00111036  RH  071%=      5-min Rain = 0
KWE1 091704Z 33004KT 01/M04 A3043 RMK A01 T00111035  RH  071%=      5-min Rain = 0
KWE1 091705Z 32004KT 01/M04 A3043 RMK A01 T00111036  RH  071%=      5-min Rain = 0
KWE1 091706Z 32005KT 01/M04 A3043 RMK A01 T00121035  RH  071%=      5-min Rain = 0
KWE1 091707Z 32004KT 01/M04 A3043 RMK A01 T00121036  RH  071%=      5-min Rain = 0
KWE1 091708Z 32004KT 01/M03 A3043 RMK A01 T00131033  RH  071%=      5-min Rain = 0
KWE1 091709Z 32005KT 01/M04 A3043 RMK A01 T00131035  RH  070%=      5-min Rain = 0
KWE1 091710Z 32004KT 01/M04 A3043 RMK A01 T00121037  RH  069%=      5-min Rain = 0
KWE1 091711Z 32005KT 01/M04 A3043 RMK A01 T00121038  RH  069%=      5-min Rain = 0
KWE1 091712Z 31004KT 01/M04 A3043 RMK A01 T00121039  RH  069%=      5-min Rain = 0
KWE1 091713Z 32004KT 01/M04 A3043 RMK A01 T00121037  RH  070%=      5-min Rain = 0
KWE1 091714Z 31004KT 01/M04 A3043 RMK A01 T00131036  RH  070%=      5-min Rain = 0
KWE1 091715Z 30005KT 01/M04 A3043 RMK A01 T00131035  RH  070%=      5-min Rain = 0
KWE1 091716Z 30005KT 01/M04 A3043 RMK A01 T00131036  RH  070%=      5-min Rain = 0
KWE1 091717Z 30004KT 01/M04 A3043 RMK A01 T00131037  RH  069%=      5-min Rain = 0
KWE1 091718Z 29004KT 01/M03 A3043 RMK A01 T00141033  RH  071%=      5-min Rain = 0
KWE1 091719Z 29006KT 02/M03 A3043 RMK A01 T00151033  RH  070%=      5-min Rain = 0
KWE1 091720Z 30005KT 02/M04 A3043 RMK A01 T00151035  RH  069%=      5-min Rain = 0
KWE1 091721Z 30006KT 02/M04 A3043 RMK A01 T00151036  RH  069%=      5-min Rain = 0
KWE1 091722Z 30005KT 02/M04 A3043 RMK A01 T00151035  RH  069%=      5-min Rain = 0
KWE1 091723Z 30006KT 02/M03 A3043 RMK A01 T00161033  RH  070%=      5-min Rain = 0
KWE1 091724Z 31005KT 02/M04 A3043 RMK A01 T00161035  RH  069%=      5-min Rain = 0
KWE1 091725Z 32004KT 02/M03 A3043 RMK A01 T00161033  RH  070%=      5-min Rain = 0
KWE1 091726Z 31003KT 02/M03 A3043 RMK A01 T00181029  RH  071%=      5-min Rain = 0
KWE1 091727Z 31005KT 02/M03 A3043 RMK A01 T00201026  RH  071%=      5-min Rain = 0
KWE1 091728Z 31005KT 02/M03 A3043 RMK A01 T00201030  RH  069%=      5-min Rain = 0
KWE1 091729Z 32005KT 02/M03 A3043 RMK A01 T00191034  RH  068%=      5-min Rain = 0
KWE1 091730Z 31004KT 02/M04 A3042 RMK A01 T00181035  RH  068%=      5-min Rain = 0
KWE1 091731Z 31006KT 02/M03 A3042 RMK A01 T00181033  RH  069%=      5-min Rain = 0
KWE1 091732Z 31006KT 02/M03 A3042 RMK A01 T00181034  RH  068%=      5-min Rain = 0
KWE1 091733Z 31004KT 02/M03 A3042 RMK A01 T00181034  RH  068%=      5-min Rain = 0
KWE1 091734Z 32005KT 02/M03 A3042 RMK A01 T00191032  RH  069%=      5-min Rain = 0
KWE1 091735Z 32005KT 02/M03 A3042 RMK A01 T00191034  RH  068%=      5-min Rain = 0
KWE1 091736Z 32003KT 02/M03 A3042 RMK A01 T00191034  RH  068%=      5-min Rain = 0
KWE1 091737Z 32004KT 02/M03 A3042 RMK A01 T00201030  RH  070%=      5-min Rain = 0
KWE1 091738Z 32005KT 02/M03 A3042 RMK A01 T00211031  RH  069%=      5-min Rain = 0
KWE1 091739Z 32004KT 02/M03 A3042 RMK A01 T00211032  RH  068%=      5-min Rain = 0
KWE1 091740Z 31005KT 02/M03 A3042 RMK A01 T00211030  RH  069%=      5-min Rain = 0
KWE1 091741Z 33005KT 02/M03 A3042 RMK A01 T00221031  RH  068%=      5-min Rain = 0
KWE1 091742Z 33005KT 02/M03 A3042 RMK A01 T00221032  RH  068%=      5-min Rain = 0
KWE1 091743Z 31004KT 02/M03 A3042 RMK A01 T00211032  RH  068%=      5-min Rain = 0
KWE1 091744Z 31006KT 02/M03 A3042 RMK A01 T00221031  RH  068%=      5-min Rain = 0
KWE1 091745Z 31004KT 02/M03 A3042 RMK A01 T00221032  RH  068%=      5-min Rain = 0
KWE1 091746Z 33005KT 02/M03 A3042 RMK A01 T00231029  RH  068%=      5-min Rain = 0
KWE1 091747Z 32005KT 02/M03 A3042 RMK A01 T00241029  RH  068%=      5-min Rain = 0
KWE1 091748Z 32004KT 03/M03 A3042 RMK A01 T00251028  RH  068%=      5-min Rain = 0
KWE1 091749Z 32005KT 03/M03 A3042 RMK A01 T00261027  RH  068%=      5-min Rain = 0
KWE1 091750Z 31005KT 03/M03 A3042 RMK A01 T00261029  RH  067%=      5-min Rain = 0
KWE1 091751Z 32005KT 03/M03 A3042 RMK A01 T00261028  RH  068%=      5-min Rain = 0
KWE1 091752Z 33006KT 03/M03 A3042 RMK A01 T00261026  RH  068%=      5-min Rain = 0
KWE1 091753Z 34005KT 03/M03 A3042 RMK A01 T00261030  RH  067%=      5-min Rain = 0
KWE1 091754Z 33004KT 03/M03 A3042 RMK A01 T00251030  RH  067%=      5-min Rain = 0
KWE1 091755Z 32005KT 03/M03 A3041 RMK A01 T00251030  RH  067%=      5-min Rain = 0
KWE1 091756Z 32006KT 03/M03 A3041 RMK A01 T00261029  RH  067%=      5-min Rain = 0
KWE1 091757Z 33005KT 03/M03 A3041 RMK A01 T00261029  RH  067%=      5-min Rain = 0
KWE1 091758Z 33005KT 03/M03 A3041 RMK A01 T00271028  RH  067%=      5-min Rain = 0
KWE1 091759Z 33005KT 03/M03 A3041 RMK A01 T00271028  RH  067%=      5-min Rain = 0
KWE1 091800Z 32005KT 03/M03 A3041 RMK A01 T00281027  RH  067%=      5-min Rain = 0
KWE1 091801Z 32005KT 03/M03 A3041 RMK A01 T00281028  RH  066%=      5-min Rain = 0
KWE1 091802Z 32005KT 03/M03 A3041 RMK A01 T00281028  RH  067%=      5-min Rain = 0
KWE1 091803Z 32004KT 03/M03 A3041 RMK A01 T00291026  RH  068%=      5-min Rain = 0
KWE1 091804Z 32006KT 03/M03 A3041 RMK A01 T00291026  RH  067%=      5-min Rain = 0
KWE1 091805Z 33006KT 03/M03 A3041 RMK A01 T00291028  RH  066%=      5-min Rain = 0
KWE1 091806Z 32006KT 03/M03 A3041 RMK A01 T00291030  RH  065%=      5-min Rain = 0
KWE1 091807Z 31005KT 03/M03 A3041 RMK A01 T00281030  RH  066%=      5-min Rain = 0
KWE1 091808Z 31006KT 03/M03 A3041 RMK A01 T00291027  RH  067%=      5-min Rain = 0
KWE1 091809Z 32005KT 03/M03 A3041 RMK A01 T00291028  RH  066%=      5-min Rain = 0
KWE1 091810Z 32006KT 03/M03 A304 RMK A01 T00301025  RH  067%=      5-min Rain = 0
KWE1 091811Z 33005KT 03/M03 A304 RMK A01 T00301028  RH  066%=      5-min Rain = 0
KWE1 091812Z 32005KT 03/M03 A304 RMK A01 T00291029  RH  065%=      5-min Rain = 0
KWE1 091813Z 31006KT 03/M03 A304 RMK A01 T00291027  RH  066%=      5-min Rain = 0
KWE1 091814Z 32006KT 03/M03 A304 RMK A01 T00291029  RH  066%=      5-min Rain = 0
KWE1 091815Z 31005KT 03/M03 A304 RMK A01 T00291029  RH  065%=      5-min Rain = 0
KWE1 091816Z 31006KT 03/M03 A304 RMK A01 T00301029  RH  066%=      5-min Rain = 0
KWE1 091817Z 32005KT 03/M03 A304 RMK A01 T00301028  RH  066%=      5-min Rain = 0
KWE1 091818Z 32005KT 03/M02 A304 RMK A01 T00311024  RH  067%=      5-min Rain = 0
KWE1 091819Z 31007KT 03/M03 A304 RMK A01 T00321025  RH  066%=      5-min Rain = 0
KWE1 091820Z 32006KT 03/M03 A304 RMK A01 T00321029  RH  064%=      5-min Rain = 0
KWE1 091821Z 32005KT 03/M03 A304 RMK A01 T00311028  RH  065%=      5-min Rain = 0
KWE1 091822Z 33005KT 03/M03 A304 RMK A01 T00321028  RH  065%=      5-min Rain = 0
KWE1 091823Z 33005KT 03/M03 A304 RMK A01 T00321026  RH  066%=      5-min Rain = 0
KWE1 091824Z 33006KT 03/M02 A304 RMK A01 T00331024  RH  066%=      5-min Rain = 0
KWE1 091825Z 33007KT 03/M02 A304 RMK A01 T00341024  RH  066%=      5-min Rain = 0
KWE1 091826Z 33007KT 03/M03 A304 RMK A01 T00321030  RH  064%=      5-min Rain = 0
KWE1 091827Z 33006KT 03/M03 A304 RMK A01 T00321027  RH  065%=      5-min Rain = 0
KWE1 091828Z 33005KT 03/M02 A304 RMK A01 T00331024  RH  066%=      5-min Rain = 0
KWE1 091829Z 32006KT 03/M03 A304 RMK A01 T00321026  RH  066%=      5-min Rain = 0
KWE1 091830Z 34007KT 03/M03 A304 RMK A01 T00331026  RH  065%=      5-min Rain = 0
KWE1 091831Z 35006KT 03/M03 A304 RMK A01 T00331027  RH  064%=      5-min Rain = 0
KWE1 091832Z 33007KT 03/M03 A304 RMK A01 T00331028  RH  064%=      5-min Rain = 0
KWE1 091833Z 32006KT 03/M03 A3039 RMK A01 T00331026  RH  065%=      5-min Rain = 0
KWE1 091834Z 33006KT 03/M03 A3039 RMK A01 T00331025  RH  066%=      5-min Rain = 0
KWE1 091835Z 34005KT 03/M03 A3039 RMK A01 T00341026  RH  065%=      5-min Rain = 0
KWE1 091836Z 33004KT 03/M03 A3039 RMK A01 T00331028  RH  064%=      5-min Rain = 0
KWE1 091837Z 33004KT 04/M02 A3039 RMK A01 T00351023  RH  066%=      5-min Rain = 0
KWE1 091838Z 33006KT 04/M03 A3039 RMK A01 T00351026  RH  064%=      5-min Rain = 0
KWE1 091839Z 31006KT 04/M03 A3039 RMK A01 T00351028  RH  063%=      5-min Rain = 0
KWE1 091840Z 33006KT 03/M03 A3039 RMK A01 T00341029  RH  063%=      5-min Rain = 0
KWE1 091841Z 31006KT 03/M03 A3039 RMK A01 T00341029  RH  063%=      5-min Rain = 0
KWE1 091842Z 32007KT 03/M03 A3039 RMK A01 T00341030  RH  063%=      5-min Rain = 0
KWE1 091843Z 33004KT 04/M03 A3039 RMK A01 T00351027  RH  064%=      5-min Rain = 0
KWE1 091844Z 32006KT 04/M02 A3039 RMK A01 T00371022  RH  065%=      5-min Rain = 0
KWE1 091845Z 32007KT 04/M02 A3039 RMK A01 T00371023  RH  065%=      5-min Rain = 0
KWE1 091846Z 33008KT 04/M03 A3039 RMK A01 T00371027  RH  063%=      5-min Rain = 0
KWE1 091847Z 33005KT 04/M03 A3039 RMK A01 T00351030  RH  062%=      5-min Rain = 0
KWE1 091848Z 32005KT 04/M03 A3039 RMK A01 T00361025  RH  064%=      5-min Rain = 0
KWE1 091849Z 33008KT 04/M02 A3039 RMK A01 T00371024  RH  064%=      5-min Rain = 0
KWE1 091850Z 34007KT 04/M03 A3039 RMK A01 T00371029  RH  062%=      5-min Rain = 0
KWE1 091851Z 33007KT 04/M03 A3039 RMK A01 T00361032  RH  061%=      5-min Rain = 0
KWE1 091852Z 32007KT 04/M03 A3039 RMK A01 T00351032  RH  062%=      5-min Rain = 0
KWE1 091853Z 32006KT 04/M03 A3039 RMK A01 T00351030  RH  062%=      5-min Rain = 0
KWE1 091854Z 33007KT 04/M03 A3039 RMK A01 T00361029  RH  062%=      5-min Rain = 0
KWE1 091855Z 34006KT 04/M03 A3038 RMK A01 T00361030  RH  062%=      5-min Rain = 0
KWE1 091856Z 34005KT 04/M03 A3038 RMK A01 T00371031  RH  061%=      5-min Rain = 0
KWE1 091857Z 33006KT 04/M03 A3038 RMK A01 T00371028  RH  062%=      5-min Rain = 0
KWE1 091858Z 33007KT 04/M03 A3038 RMK A01 T00381027  RH  062%=      5-min Rain = 0
KWE1 091859Z 34006KT 04/M03 A3038 RMK A01 T00381030  RH  061%=      5-min Rain = 0
KWE1 091900Z 35005KT 04/M03 A3038 RMK A01 T00381028  RH  062%=      5-min Rain = 0
KWE1 091901Z 32005KT 04/M02 A3038 RMK A01 T00391023  RH  064%=      5-min Rain = 0
KWE1 091902Z 32006KT 04/M02 A3038 RMK A01 T00401023  RH  064%=      5-min Rain = 0
KWE1 091903Z 32007KT 04/M03 A3038 RMK A01 T00401026  RH  062%=      5-min Rain = 0
KWE1 091904Z 33007KT 04/M03 A3038 RMK A01 T00391030  RH  061%=      5-min Rain = 0
KWE1 091905Z 32008KT 04/M03 A3038 RMK A01 T00381030  RH  061%=      5-min Rain = 0
KWE1 091906Z 33007KT 04/M03 A3038 RMK A01 T00381030  RH  061%=      5-min Rain = 0
KWE1 091907Z 34007KT 04/M03 A3038 RMK A01 T00391027  RH  062%=      5-min Rain = 0
KWE1 091908Z 33006KT 04/M03 A3038 RMK A01 T00391029  RH  061%=      5-min Rain = 0
KWE1 091909Z 32007KT 04/M03 A3038 RMK A01 T00391028  RH  062%=      5-min Rain = 0
KWE1 091910Z 32007KT 04/M03 A3038 RMK A01 T00401027  RH  062%=      5-min Rain = 0
KWE1 091911Z 32007KT 04/M03 A3038 RMK A01 T00401029  RH  061%=      5-min Rain = 0
KWE1 091912Z 33006KT 04/M03 A3038 RMK A01 T00391027  RH  062%=      5-min Rain = 0
KWE1 091913Z 33007KT 04/M03 A3038 RMK A01 T00411025  RH  062%=      5-min Rain = 0
KWE1 091914Z 35007KT 04/M03 A3038 RMK A01 T00411026  RH  062%=      5-min Rain = 0
KWE1 091915Z 35009KT 04/M02 A3038 RMK A01 T00411024  RH  062%=      5-min Rain = 0
KWE1 091916Z 34006KT 04/M02 A3038 RMK A01 T00411023  RH  063%=      5-min Rain = 0
KWE1 091917Z 33006KT 04/M02 A3038 RMK A01 T00421022  RH  063%=      5-min Rain = 0
KWE1 091918Z 33005KT 04/M02 A3038 RMK A01 T00431023  RH  062%=      5-min Rain = 0
KWE1 091919Z 35008KT 04/M02 A3038 RMK A01 T00431022  RH  063%=      5-min Rain = 0
KWE1 091920Z 36007KT 04/M03 A3038 RMK A01 T00421025  RH  061%=      5-min Rain = 0
KWE1 091921Z 34008KT 04/M03 A3038 RMK A01 T00421027  RH  061%=      5-min Rain = 0
KWE1 091922Z 35007KT 04/M03 A3038 RMK A01 T00421027  RH  061%=      5-min Rain = 0
KWE1 091923Z 35006KT 04/M03 A3038 RMK A01 T00421028  RH  061%=      5-min Rain = 0
KWE1 091924Z 33007KT 04/M02 A3038 RMK A01 T00421024  RH  062%=      5-min Rain = 0
KWE1 091925Z 34005KT 04/M02 A3038 RMK A01 T00431024  RH  062%=      5-min Rain = 0
KWE1 091926Z 35008KT 04/M02 A3038 RMK A01 T00431021  RH  063%=      5-min Rain = 0
KWE1 091927Z 34007KT 04/M02 A3038 RMK A01 T00431024  RH  062%=      5-min Rain = 0
KWE1 091928Z 34006KT 04/M03 A3038 RMK A01 T00431025  RH  062%=      5-min Rain = 0
KWE1 091929Z 35007KT 04/M02 A3038 RMK A01 T00431022  RH  063%=      5-min Rain = 0
KWE1 091930Z 35005KT 04/M02 A3038 RMK A01 T00441021  RH  062%=      5-min Rain = 0
KWE1 091931Z 33006KT 05/M02 A3037 RMK A01 T00451022  RH  062%=      5-min Rain = 0
KWE1 091932Z 33007KT 05/M02 A3037 RMK A01 T00461020  RH  062%=      5-min Rain = 0
KWE1 091933Z 32006KT 05/M02 A3037 RMK A01 T00451024  RH  061%=      5-min Rain = 0
KWE1 091934Z 31007KT 04/M02 A3037 RMK A01 T00441023  RH  062%=      5-min Rain = 0
KWE1 091935Z 32008KT 04/M02 A3037 RMK A01 T00441023  RH  062%=      5-min Rain = 0
KWE1 091936Z 32006KT 04/M02 A3037 RMK A01 T00441023  RH  062%=      5-min Rain = 0
KWE1 091937Z 34007KT 04/M02 A3037 RMK A01 T00441023  RH  062%=      5-min Rain = 0
KWE1 091938Z 33008KT 05/M02 A3037 RMK A01 T00451021  RH  062%=      5-min Rain = 0
KWE1 091939Z 33008KT 05/M02 A3037 RMK A01 T00451022  RH  062%=      5-min Rain = 0
KWE1 091940Z 33008KT 04/M02 A3037 RMK A01 T00441022  RH  062%=      5-min Rain = 0
KWE1 091941Z 33008KT 05/M02 A3037 RMK A01 T00451022  RH  062%=      5-min Rain = 0
KWE1 091942Z 33007KT 04/M03 A3037 RMK A01 T00441025  RH  061%=      5-min Rain = 0
KWE1 091943Z 33005KT 04/M03 A3037 RMK A01 T00441025  RH  061%=      5-min Rain = 0
KWE1 091944Z 33005KT 05/M02 A3037 RMK A01 T00451021  RH  062%=      5-min Rain = 0
KWE1 091945Z 33005KT 05/M02 A3037 RMK A01 T00461019  RH  063%=      5-min Rain = 0
KWE1 091946Z 32009KT 05/M02 A3037 RMK A01 T00471018  RH  063%=      5-min Rain = 0
KWE1 091947Z 32008KT 05/M02 A3037 RMK A01 T00461023  RH  061%=      5-min Rain = 0
KWE1 091948Z 32005KT 05/M02 A3037 RMK A01 T00451022  RH  062%=      5-min Rain = 0
KWE1 091949Z 33005KT 05/M02 A3037 RMK A01 T00461018  RH  063%=      5-min Rain = 0
KWE1 091950Z 32009KT 05/M02 A3037 RMK A01 T00481017  RH  063%=      5-min Rain = 0
KWE1 091951Z 33008KT 05/M02 A3037 RMK A01 T00471023  RH  060%=      5-min Rain = 0
KWE1 091952Z 33008KT 05/M03 A3037 RMK A01 T00471025  RH  060%=      5-min Rain = 0
KWE1 091953Z 33008KT 05/M03 A3037 RMK A01 T00461026  RH  060%=      5-min Rain = 0
KWE1 091954Z 33005KT 05/M02 A3037 RMK A01 T00461024  RH  060%=      5-min Rain = 0
KWE1 091955Z 32006KT 05/M02 A3037 RMK A01 T00471019  RH  062%=      5-min Rain = 0
KWE1 091956Z 32006KT 05/M02 A3037 RMK A01 T00481017  RH  063%=      5-min Rain = 0
KWE1 091957Z 33009KT 05/M02 A3037 RMK A01 T00491020  RH  061%=      5-min Rain = 0
KWE1 091958Z 33008KT 05/M02 A3037 RMK A01 T00481020  RH  061%=      5-min Rain = 0
KWE1 091959Z 33006KT 05/M02 A3036 RMK A01 T00481017  RH  062%=      5-min Rain = 0
KWE1 092000Z 33006KT 05/M02 A3036 RMK A01 T00491018  RH  062%=      5-min Rain = 0
KWE1 092001Z 33006KT 05/M02 A3036 RMK A01 T00481022  RH  060%=      5-min Rain = 0
KWE1 092002Z 34007KT 05/M02 A3036 RMK A01 T00481022  RH  061%=      5-min Rain = 0
KWE1 092003Z 33006KT 05/M02 A3036 RMK A01 T00491018  RH  062%=      5-min Rain = 0
KWE1 092004Z 33006KT 05/M02 A3036 RMK A01 T00491019  RH  062%=      5-min Rain = 0
KWE1 092005Z 35006KT 05/M02 A3036 RMK A01 T00491020  RH  061%=      5-min Rain = 0
KWE1 092006Z 35007KT 05/M02 A3036 RMK A01 T00491022  RH  060%=      5-min Rain = 0
KWE1 092007Z 33007KT 05/M02 A3036 RMK A01 T00491020  RH  061%=      5-min Rain = 0
KWE1 092008Z 33008KT 05/M02 A3036 RMK A01 T00491020  RH  061%=      5-min Rain = 0
KWE1 092009Z 32006KT 05/M02 A3036 RMK A01 T00491023  RH  060%=      5-min Rain = 0
KWE1 092010Z 32006KT 05/M02 A3036 RMK A01 T00491024  RH  059%=      5-min Rain = 0
KWE1 092011Z 32007KT 05/M02 A3036 RMK A01 T00491020  RH  061%=      5-min Rain = 0
KWE1 092012Z 32007KT 05/M02 A3036 RMK A01 T00491022  RH  060%=      5-min Rain = 0
KWE1 092013Z 33006KT 05/M02 A3036 RMK A01 T00491022  RH  060%=      5-min Rain = 0
KWE1 092014Z 32006KT 05/M02 A3036 RMK A01 T00491022  RH  060%=      5-min Rain = 0
KWE1 092015Z 31006KT 05/M02 A3036 RMK A01 T00501017  RH  062%=      5-min Rain = 0
KWE1 092016Z 31007KT 05/M02 A3036 RMK A01 T00511020  RH  060%=      5-min Rain = 0
KWE1 092017Z 31006KT 05/M03 A3036 RMK A01 T00521026  RH  057%=      5-min Rain = 0
KWE1 092018Z 31004KT 05/M02 A3036 RMK A01 T00511022  RH  059%=      5-min Rain = 0
KWE1 092019Z 30005KT 05/M02 A3036 RMK A01 T00531016  RH  061%=      5-min Rain = 0
KWE1 092020Z 29006KT 05/M02 A3036 RMK A01 T00521023  RH  058%=      5-min Rain = 0
KWE1 092021Z 34005KT 05/M02 A3036 RMK A01 T00521019  RH  060%=      5-min Rain = 0
KWE1 092022Z 34006KT 05/M02 A3036 RMK A01 T00521022  RH  059%=      5-min Rain = 0
KWE1 092023Z 33006KT 05/M02 A3036 RMK A01 T00511020  RH  060%=      5-min Rain = 0
KWE1 092024Z 32007KT 05/M02 A3036 RMK A01 T00511023  RH  059%=      5-min Rain = 0
KWE1 092025Z 31006KT 05/M03 A3036 RMK A01 T00511027  RH  057%=      5-min Rain = 0
KWE1 092026Z 31005KT 05/M02 A3036 RMK A01 T00511023  RH  059%=      5-min Rain = 0
KWE1 092027Z 31007KT 05/M02 A3036 RMK A01 T00521020  RH  060%=      5-min Rain = 0
KWE1 092028Z 31006KT 05/M02 A3036 RMK A01 T00531022  RH  059%=      5-min Rain = 0
KWE1 092029Z 30005KT 05/M03 A3036 RMK A01 T00521026  RH  057%=      5-min Rain = 0
KWE1 092030Z 31007KT 05/M03 A3036 RMK A01 T00511025  RH  058%=      5-min Rain = 0
KWE1 092031Z 33006KT 05/M03 A3036 RMK A01 T00521028  RH  056%=      5-min Rain = 0
KWE1 092032Z 32004KT 05/M03 A3036 RMK A01 T00521031  RH  055%=      5-min Rain = 0
KWE1 092033Z 32004KT 05/M03 A3036 RMK A01 T00531028  RH  056%=      5-min Rain = 0
KWE1 092034Z 32003KT 05/M03 A3036 RMK A01 T00531028  RH  056%=      5-min Rain = 0
KWE1 092035Z 33005KT 05/M03 A3036 RMK A01 T00541027  RH  056%=      5-min Rain = 0
KWE1 092036Z 32005KT 05/M02 A3036 RMK A01 T00541024  RH  057%=      5-min Rain = 0
KWE1 092037Z 31006KT 05/M03 A3036 RMK A01 T00541025  RH  057%=      5-min Rain = 0
KWE1 092038Z 31006KT 05/M03 A3036 RMK A01 T00541025  RH  057%=      5-min Rain = 0
KWE1 092039Z 30006KT 05/M03 A3036 RMK A01 T00541028  RH  056%=      5-min Rain = 0
KWE1 092040Z 31005KT 05/M03 A3036 RMK A01 T00541026  RH  056%=      5-min Rain = 0
KWE1 092041Z 31006KT 05/M03 A3036 RMK A01 T00541027  RH  056%=      5-min Rain = 0
KWE1 092042Z 32007KT 05/M03 A3036 RMK A01 T00541025  RH  057%=      5-min Rain = 0
KWE1 092043Z 34004KT 05/M03 A3036 RMK A01 T00531025  RH  057%=      5-min Rain = 0
KWE1 092044Z 32004KT 05/M02 A3036 RMK A01 T00531023  RH  058%=      5-min Rain = 0
KWE1 092045Z 32008KT 05/M02 A3036 RMK A01 T00541024  RH  057%=      5-min Rain = 0
KWE1 092046Z 32008KT 05/M03 A3036 RMK A01 T00541031  RH  054%=      5-min Rain = 0
KWE1 092047Z 31005KT 05/M04 A3036 RMK A01 T00541035  RH  053%=      5-min Rain = 0
KWE1 092048Z 30006KT 05/M03 A3036 RMK A01 T00531033  RH  054%=      5-min Rain = 0
KWE1 092049Z 30007KT 05/M03 A3036 RMK A01 T00541030  RH  054%=      5-min Rain = 0
KWE1 092050Z 32006KT 06/M03 A3036 RMK A01 T00551028  RH  055%=      5-min Rain = 0
KWE1 092051Z 33006KT 06/M03 A3036 RMK A01 T00561025  RH  056%=      5-min Rain = 0
KWE1 092052Z 32007KT 06/M03 A3036 RMK A01 T00561026  RH  056%=      5-min Rain = 0
KWE1 092053Z 32004KT 06/M03 A3036 RMK A01 T00551031  RH  054%=      5-min Rain = 0
KWE1 092054Z 32007KT 06/M03 A3036 RMK A01 T00551028  RH  055%=      5-min Rain = 0
KWE1 092055Z 29006KT 06/M02 A3036 RMK A01 T00561022  RH  057%=      5-min Rain = 0
KWE1 092056Z 32007KT 06/M02 A3036 RMK A01 T00571023  RH  056%=      5-min Rain = 0
KWE1 092057Z 33007KT 06/M03 A3036 RMK A01 T00581026  RH  055%=      5-min Rain = 0
KWE1 092058Z 32005KT 06/M03 A3036 RMK A01 T00571028  RH  054%=      5-min Rain = 0
KWE1 092059Z 31006KT 06/M02 A3036 RMK A01 T00581022  RH  056%=      5-min Rain = 0
KWE1 092100Z 31005KT 06/M02 A3036 RMK A01 T00581020  RH  057%=      5-min Rain = 0
KWE1 092101Z 31006KT 06/M02 A3036 RMK A01 T00591017  RH  058%=      5-min Rain = 0
KWE1 092102Z 31009KT 06/M02 A3036 RMK A01 T00591020  RH  057%=      5-min Rain = 0
KWE1 092103Z 31008KT 06/M02 A3036 RMK A01 T00581024  RH  056%=      5-min Rain = 0
KWE1 092104Z 32005KT 06/M02 A3036 RMK A01 T00581021  RH  057%=      5-min Rain = 0
KWE1 092105Z 31007KT 06/M02 A3036 RMK A01 T00591019  RH  058%=      5-min Rain = 0
KWE1 092106Z 33006KT 06/M02 A3036 RMK A01 T00591023  RH  055%=      5-min Rain = 0
KWE1 092107Z 34005KT 06/M02 A3036 RMK A01 T00591024  RH  055%=      5-min Rain = 0
KWE1 092108Z 32005KT 06/M02 A3035 RMK A01 T00591020  RH  057%=      5-min Rain = 0
KWE1 092109Z 32009KT 06/M02 A3035 RMK A01 T00591021  RH  056%=      5-min Rain = 0
KWE1 092110Z 33007KT 06/M03 A3035 RMK A01 T00591027  RH  054%=      5-min Rain = 0
KWE1 092111Z 33009KT 06/M03 A3035 RMK A01 T00581030  RH  053%=      5-min Rain = 0
KWE1 092112Z 33006KT 06/M03 A3035 RMK A01 T00581028  RH  054%=      5-min Rain = 0
KWE1 092113Z 34006KT 06/M03 A3035 RMK A01 T00581025  RH  055%=      5-min Rain = 0
KWE1 092114Z 32007KT 06/M02 A3035 RMK A01 T00591022  RH  056%=      5-min Rain = 0
KWE1 092115Z 32007KT 06/M02 A3035 RMK A01 T00601020  RH  057%=      5-min Rain = 0
KWE1 092116Z 32009KT 06/M02 A3035 RMK A01 T00601021  RH  056%=      5-min Rain = 0
KWE1 092117Z 32007KT 06/M03 A3035 RMK A01 T00601026  RH  054%=      5-min Rain = 0
KWE1 092118Z 32006KT 06/M03 A3035 RMK A01 T00591027  RH  054%=      5-min Rain = 0
KWE1 092119Z 32007KT 06/M03 A3035 RMK A01 T00591027  RH  054%=      5-min Rain = 0
KWE1 092120Z 32009KT 06/M03 A3035 RMK A01 T00591027  RH  054%=      5-min Rain = 0
KWE1 092121Z 32009KT 06/M03 A3035 RMK A01 T00591030  RH  053%=      5-min Rain = 0
KWE1 092122Z 31008KT 06/M03 A3036 RMK A01 T00591029  RH  053%=      5-min Rain = 0
KWE1 092123Z 31007KT 06/M03 A3036 RMK A01 T00591029  RH  053%=      5-min Rain = 0
KWE1 092124Z 31005KT 06/M03 A3036 RMK A01 T00591026  RH  054%=      5-min Rain = 0
KWE1 092125Z 31007KT 06/M02 A3036 RMK A01 T00601023  RH  055%=      5-min Rain = 0
KWE1 092126Z 31007KT 06/M02 A3036 RMK A01 T00601023  RH  055%=      5-min Rain = 0
KWE1 092127Z 31007KT 06/M02 A3036 RMK A01 T00611017  RH  057%=      5-min Rain = 0
KWE1 092128Z 31006KT 06/M02 A3036 RMK A01 T00611020  RH  056%=      5-min Rain = 0
KWE1 092129Z 32007KT 06/M02 A3036 RMK A01 T00611021  RH  056%=      5-min Rain = 0
KWE1 092130Z 33007KT 06/M02 A3036 RMK A01 T00611023  RH  055%=      5-min Rain = 0
KWE1 092131Z 32006KT 06/M03 A3036 RMK A01 T00611025  RH  054%=      5-min Rain = 0
KWE1 092132Z 31009KT 06/M03 A3036 RMK A01 T00611025  RH  054%=      5-min Rain = 0
KWE1 092133Z 31008KT 06/M03 A3036 RMK A01 T00611027  RH  053%=      5-min Rain = 0
KWE1 092134Z 30009KT 06/M02 A3036 RMK A01 T00611023  RH  055%=      5-min Rain = 0
KWE1 092135Z 31008KT 06/M02 A3036 RMK A01 T00611021  RH  056%=      5-min Rain = 0
KWE1 092136Z 30008KT 06/M02 A3036 RMK A01 T00611022  RH  055%=      5-min Rain = 0
KWE1 092137Z 30008KT 06/M02 A3036 RMK A01 T00611023  RH  055%=      5-min Rain = 0
KWE1 092138Z 30008KT 06/M02 A3036 RMK A01 T00611023  RH  055%=      5-min Rain = 0
KWE1 092139Z 30008KT 06/M02 A3036 RMK A01 T00611022  RH  055%=      5-min Rain = 0
KWE1 092140Z 30011KT 06/M03 A3036 RMK A01 T00621025  RH  054%=      5-min Rain = 0
KWE1 092141Z 30010KT 06/M03 A3036 RMK A01 T00611029  RH  052%=      5-min Rain = 0
KWE1 092142Z 31009KT 06/M04 A3036 RMK A01 T00601035  RH  051%=      5-min Rain = 0
KWE1 092143Z 30008KT 06/M03 A3036 RMK A01 T00591034  RH  051%=      5-min Rain = 0
KWE1 092144Z 30008KT 06/M03 A3036 RMK A01 T00601032  RH  052%=      5-min Rain = 0
KWE1 092145Z 31009KT 06/M03 A3036 RMK A01 T00611031  RH  052%=      5-min Rain = 0
KWE1 092146Z 31009KT 06/M03 A3036 RMK A01 T00611033  RH  051%=      5-min Rain = 0
KWE1 092147Z 31009KT 06/M04 A3036 RMK A01 T00611035  RH  050%=      5-min Rain = 0
KWE1 092148Z 31010KT 06/M04 A3036 RMK A01 T00611035  RH  050%=      5-min Rain = 0
KWE1 092149Z 31008KT 06/M04 A3036 RMK A01 T00601035  RH  050%=      5-min Rain = 0
KWE1 092150Z 30009KT 06/M03 A3036 RMK A01 T00601034  RH  051%=      5-min Rain = 0
KWE1 092151Z 29009KT 06/M03 A3036 RMK A01 T00601034  RH  051%=      5-min Rain = 0
KWE1 092152Z 30009KT 06/M04 A3036 RMK A01 T00601036  RH  050%=      5-min Rain = 0
KWE1 092153Z 30009KT 06/M04 A3036 RMK A01 T00601037  RH  050%=      5-min Rain = 0
KWE1 092154Z 30010KT 06/M04 A3036 RMK A01 T00611035  RH  050%=      5-min Rain = 0
KWE1 092155Z 30008KT 06/M03 A3036 RMK A01 T00611034  RH  051%=      5-min Rain = 0
KWE1 092156Z 30008KT 06/M04 A3036 RMK A01 T00611038  RH  049%=      5-min Rain = 0
KWE1 092157Z 30007KT 06/M04 A3036 RMK A01 T00611044  RH  047%=      5-min Rain = 0
KWE1 092158Z 31010KT 06/M04 A3036 RMK A01 T00611040  RH  048%=      5-min Rain = 0
KWE1 092159Z 31008KT 06/M04 A3036 RMK A01 T00611041  RH  048%=      5-min Rain = 0
KWE1 092200Z 30008KT 06/M04 A3036 RMK A01 T00601038  RH  049%=      5-min Rain = 0
KWE1 092201Z 30009KT 06/M04 A3036 RMK A01 T00611035  RH  050%=      5-min Rain = 0
KWE1 092202Z 31011KT 06/M04 A3036 RMK A01 T00611038  RH  049%=      5-min Rain = 0
KWE1 092203Z 30009KT 06/M04 A3036 RMK A01 T00611039  RH  049%=      5-min Rain = 0
KWE1 092204Z 30009KT 06/M04 A3036 RMK A01 T00601038  RH  049%=      5-min Rain = 0
KWE1 092205Z 30010KT 06/M04 A3036 RMK A01 T00611039  RH  049%=      5-min Rain = 0
KWE1 092206Z 29010KT 06/M04 A3036 RMK A01 T00601039  RH  049%=      5-min Rain = 0
KWE1 092207Z 30010KT 06/M04 A3036 RMK A01 T00601042  RH  048%=      5-min Rain = 0
KWE1 092208Z 29009KT 06/M04 A3036 RMK A01 T00601044  RH  047%=      5-min Rain = 0
KWE1 092209Z 30008KT 06/M04 A3036 RMK A01 T00601041  RH  048%=      5-min Rain = 0
KWE1 092210Z 31008KT 06/M04 A3036 RMK A01 T00601040  RH  049%=      5-min Rain = 0
KWE1 092211Z 31010KT 06/M04 A3036 RMK A01 T00601038  RH  049%=      5-min Rain = 0
KWE1 092212Z 30010KT 06/M04 A3036 RMK A01 T00601039  RH  049%=      5-min Rain = 0
KWE1 092213Z 31008KT 06/M04 A3036 RMK A01 T00601040  RH  049%=      5-min Rain = 0
KWE1 092214Z 30008KT 06/M04 A3036 RMK A01 T00591038  RH  050%=      5-min Rain = 0
KWE1 092215Z 30008KT 06/M03 A3036 RMK A01 T00601033  RH  051%=      5-min Rain = 0
KWE1 092216Z 30009KT 06/M03 A3036 RMK A01 T00601032  RH  052%=      5-min Rain = 0
KWE1 092217Z 30010KT 06/M03 A3036 RMK A01 T00601032  RH  051%=      5-min Rain = 0
KWE1 092218Z 30009KT 06/M03 A3036 RMK A01 T00601033  RH  051%=      5-min Rain = 0
KWE1 092219Z 30010KT 06/M03 A3036 RMK A01 T00601032  RH  052%=      5-min Rain = 0
KWE1 092220Z 30009KT 06/M03 A3036 RMK A01 T00601034  RH  051%=      5-min Rain = 0
KWE1 092221Z 30010KT 06/M03 A3036 RMK A01 T00591033  RH  051%=      5-min Rain = 0
KWE1 092222Z 30008KT 06/M03 A3036 RMK A01 T00591034  RH  051%=      5-min Rain = 0
KWE1 092223Z 30008KT 06/M03 A3036 RMK A01 T00591032  RH  052%=      5-min Rain = 0
KWE1 092224Z 30009KT 06/M03 A3036 RMK A01 T00591032  RH  052%=      5-min Rain = 0
KWE1 092225Z 31008KT 06/M03 A3036 RMK A01 T00591031  RH  052%=      5-min Rain = 0
KWE1 092226Z 30007KT 06/M03 A3036 RMK A01 T00591030  RH  053%=      5-min Rain = 0
KWE1 092227Z 30006KT 06/M03 A3036 RMK A01 T00591028  RH  054%=      5-min Rain = 0
KWE1 092228Z 32006KT 06/M02 A3036 RMK A01 T00591023  RH  055%=      5-min Rain = 0
KWE1 092229Z 31008KT 06/M02 A3036 RMK A01 T00591024  RH  055%=      5-min Rain = 0
KWE1 092230Z 31007KT 06/M03 A3036 RMK A01 T00601026  RH  054%=      5-min Rain = 0
KWE1 092231Z 31007KT 06/M03 A3036 RMK A01 T00591026  RH  054%=      5-min Rain = 0
KWE1 092232Z 32008KT 06/M02 A3036 RMK A01 T00591023  RH  055%=      5-min Rain = 0
KWE1 092233Z 31007KT 06/M03 A3036 RMK A01 T00591027  RH  054%=      5-min Rain = 0
KWE1 092234Z 32006KT 06/M03 A3036 RMK A01 T00601026  RH  054%=      5-min Rain = 0
KWE1 092235Z 31007KT 06/M03 A3036 RMK A01 T00591026  RH  054%=      5-min Rain = 0
KWE1 092236Z 31007KT 06/M03 A3036 RMK A01 T00601027  RH  054%=      5-min Rain = 0
KWE1 092237Z 30007KT 06/M03 A3036 RMK A01 T00601025  RH  055%=      5-min Rain = 0
KWE1 092238Z 30008KT 06/M02 A3036 RMK A01 T00601023  RH  055%=      5-min Rain = 0
KWE1 092239Z 30008KT 06/M02 A3036 RMK A01 T00591024  RH  055%=      5-min Rain = 0
KWE1 092240Z 30008KT 06/M03 A3036 RMK A01 T00591025  RH  055%=      5-min Rain = 0
KWE1 092241Z 30008KT 06/M02 A3036 RMK A01 T00591024  RH  055%=      5-min Rain = 0
KWE1 092242Z 30007KT 06/M02 A3036 RMK A01 T00581023  RH  056%=      5-min Rain = 0
KWE1 092243Z 31009KT 06/M02 A3036 RMK A01 T00581021  RH  057%=      5-min Rain = 0
KWE1 092244Z 31008KT 06/M02 A3036 RMK A01 T00581023  RH  056%=      5-min Rain = 0
KWE1 092245Z 31007KT 06/M02 A3036 RMK A01 T00581023  RH  056%=      5-min Rain = 0
KWE1 092246Z 31007KT 06/M02 A3036 RMK A01 T00581022  RH  056%=      5-min Rain = 0
KWE1 092247Z 31007KT 06/M02 A3036 RMK A01 T00581021  RH  057%=      5-min Rain = 0
KWE1 092248Z 30005KT 06/M02 A3036 RMK A01 T00571021  RH  057%=      5-min Rain = 0
KWE1 092249Z 30007KT 06/M02 A3036 RMK A01 T00571018  RH  058%=      5-min Rain = 0
KWE1 092250Z 30006KT 06/M02 A3036 RMK A01 T00571020  RH  058%=      5-min Rain = 0
KWE1 092251Z 30006KT 06/M02 A3036 RMK A01 T00571020  RH  058%=      5-min Rain = 0
KWE1 092252Z 29006KT 06/M02 A3036 RMK A01 T00571019  RH  058%=      5-min Rain = 0
KWE1 092253Z 30007KT 06/M02 A3036 RMK A01 T00571020  RH  058%=      5-min Rain = 0
KWE1 092254Z 30006KT 06/M02 A3036 RMK A01 T00571019  RH  058%=      5-min Rain = 0
KWE1 092255Z 30006KT 06/M02 A3036 RMK A01 T00571017  RH  059%=      5-min Rain = 0
KWE1 092256Z 30007KT 06/M02 A3036 RMK A01 T00561017  RH  059%=      5-min Rain = 0
KWE1 092257Z 30007KT 06/M02 A3036 RMK A01 T00561020  RH  058%=      5-min Rain = 0
KWE1 092258Z 30006KT 06/M02 A3036 RMK A01 T00561020  RH  058%=      5-min Rain = 0
KWE1 092259Z 30006KT 06/M02 A3036 RMK A01 T00551019  RH  059%=      5-min Rain = 0
KWE1 092300Z 30007KT 06/M02 A3036 RMK A01 T00551019  RH  059%=      5-min Rain = 0
KWE1 092301Z 30007KT 06/M02 A3036 RMK A01 T00551019  RH  059%=      5-min Rain = 0
KWE1 092302Z 30006KT 06/M02 A3036 RMK A01 T00551019  RH  059%=      5-min Rain = 0
KWE1 092303Z 30005KT 05/M02 A3037 RMK A01 T00541017  RH  060%=      5-min Rain = 0
KWE1 092304Z 30004KT 05/M02 A3036 RMK A01 T00541015  RH  061%=      5-min Rain = 0
KWE1 092305Z 29005KT 05/M02 A3036 RMK A01 T00531015  RH  062%=      5-min Rain = 0
KWE1 092306Z 29005KT 05/M01 A3036 RMK A01 T00531014  RH  062%=      5-min Rain = 0
KWE1 092307Z 29004KT 05/M01 A3036 RMK A01 T00531013  RH  062%=      5-min Rain = 0
KWE1 092308Z 30005KT 05/M01 A3036 RMK A01 T00531013  RH  062%=      5-min Rain = 0
KWE1 092309Z 29005KT 05/M01 A3036 RMK A01 T00521013  RH  063%=      5-min Rain = 0
KWE1 092310Z 30006KT 05/M01 A3036 RMK A01 T00521014  RH  063%=      5-min Rain = 0
KWE1 092311Z 29005KT 05/M02 A3036 RMK A01 T00511016  RH  062%=      5-min Rain = 0
KWE1 092312Z 30005KT 05/M02 A3036 RMK A01 T00511016  RH  062%=      5-min Rain = 0
KWE1 092313Z 29005KT 05/M02 A3036 RMK A01 T00511017  RH  061%=      5-min Rain = 0
KWE1 092314Z 29005KT 05/M02 A3036 RMK A01 T00511017  RH  061%=      5-min Rain = 0
KWE1 092315Z 29006KT 05/M02 A3036 RMK A01 T00501017  RH  062%=      5-min Rain = 0
KWE1 092316Z 29005KT 05/M02 A3036 RMK A01 T00501016  RH  062%=      5-min Rain = 0
KWE1 092317Z 28005KT 05/M02 A3036 RMK A01 T00491015  RH  063%=      5-min Rain = 0
KWE1 092318Z 28004KT 05/M02 A3036 RMK A01 T00481015  RH  064%=      5-min Rain = 0
KWE1 092319Z 28004KT 05/M01 A3036 RMK A01 T00481014  RH  064%=      5-min Rain = 0
KWE1 092320Z 28005KT 05/M01 A3036 RMK A01 T00481014  RH  064%=      5-min Rain = 0
KWE1 092321Z 28004KT 05/M01 A3036 RMK A01 T00481014  RH  064%=      5-min Rain = 0
KWE1 092322Z 28004KT 05/M01 A3036 RMK A01 T00481014  RH  064%=      5-min Rain = 0
KWE1 092323Z 27004KT 05/M01 A3036 RMK A01 T00471014  RH  065%=      5-min Rain = 0
KWE1 092324Z 27004KT 05/M01 A3036 RMK A01 T00461014  RH  065%=      5-min Rain = 0
KWE1 092325Z 27004KT 05/M01 A3036 RMK A01 T00461014  RH  065%=      5-min Rain = 0
KWE1 092326Z 27004KT 05/M01 A3036 RMK A01 T00451013  RH  066%=      5-min Rain = 0
KWE1 092327Z 27005KT 05/M01 A3036 RMK A01 T00451013  RH  066%=      5-min Rain = 0
KWE1 092328Z 26004KT 04/M01 A3036 RMK A01 T00441014  RH  066%=      5-min Rain = 0
KWE1 092329Z 26004KT 04/M01 A3036 RMK A01 T00441014  RH  066%=      5-min Rain = 0
KWE1 092330Z 27004KT 04/M01 A3036 RMK A01 T00441014  RH  066%=      5-min Rain = 0
KWE1 092331Z 26004KT 04/M02 A3036 RMK A01 T00431015  RH  066%=      5-min Rain = 0
KWE1 092332Z 26004KT 04/M01 A3036 RMK A01 T00431014  RH  066%=      5-min Rain = 0
KWE1 092333Z 26004KT 04/M01 A3036 RMK A01 T00431014  RH  067%=      5-min Rain = 0
KWE1 092334Z 26004KT 04/M01 A3036 RMK A01 T00431013  RH  067%=      5-min Rain = 0
KWE1 092335Z 26004KT 04/M01 A3036 RMK A01 T00431013  RH  067%=      5-min Rain = 0
KWE1 092336Z 26004KT 04/M01 A3036 RMK A01 T00421014  RH  067%=      5-min Rain = 0
KWE1 092337Z 26004KT 04/M01 A3036 RMK A01 T00421013  RH  067%=      5-min Rain = 0
KWE1 092338Z 26004KT 04/M01 A3036 RMK A01 T00411013  RH  068%=      5-min Rain = 0
KWE1 092339Z 26004KT 04/M01 A3036 RMK A01 T00401013  RH  068%=      5-min Rain = 0
KWE1 092340Z 26004KT 04/M01 A3036 RMK A01 T00401013  RH  068%=      5-min Rain = 0
KWE1 092341Z 26005KT 04/M01 A3036 RMK A01 T00401012  RH  069%=      5-min Rain = 0
KWE1 092342Z 26005KT 04/M01 A3036 RMK A01 T00401013  RH  069%=      5-min Rain = 0
KWE1 092343Z 26005KT 04/M01 A3036 RMK A01 T00391013  RH  069%=      5-min Rain = 0
KWE1 092344Z 26005KT 04/M01 A3036 RMK A01 T00391013  RH  069%=      5-min Rain = 0
KWE1 092345Z 26005KT 04/M01 A3036 RMK A01 T00381013  RH  069%=      5-min Rain = 0
KWE1 092346Z 26004KT 04/M01 A3036 RMK A01 T00381012  RH  070%=      5-min Rain = 0
KWE1 092347Z 26004KT 04/M01 A3036 RMK A01 T00381012  RH  070%=      5-min Rain = 0
KWE1 092348Z 26004KT 04/M01 A3036 RMK A01 T00381012  RH  070%=      5-min Rain = 0
KWE1 092349Z 25004KT 04/M01 A3036 RMK A01 T00371012  RH  070%=      5-min Rain = 0
KWE1 092350Z 25004KT 04/M01 A3036 RMK A01 T00381012  RH  070%=      5-min Rain = 0
KWE1 092351Z 26004KT 04/M01 A3036 RMK A01 T00371012  RH  070%=      5-min Rain = 0
KWE1 092352Z 26004KT 04/M01 A3036 RMK A01 T00371012  RH  070%=      5-min Rain = 0
KWE1 092353Z 26004KT 04/M01 A3036 RMK A01 T00371012  RH  070%=      5-min Rain = 0
KWE1 092354Z 26004KT 04/M01 A3036 RMK A01 T00371012  RH  070%=      5-min Rain = 0
KWE1 092355Z 26004KT 04/M01 A3036 RMK A01 T00361013  RH  070%=      5-min Rain = 0
KWE1 092356Z 26004KT 04/M01 A3036 RMK A01 T00361012  RH  070%=      5-min Rain = 0
KWE1 092357Z 25005KT 04/M01 A3036 RMK A01 T00361013  RH  070%=      5-min Rain = 0
KWE1 092358Z 26005KT 04/M01 A3036 RMK A01 T00361013  RH  070%=      5-min Rain = 0
KWE1 092359Z 26005KT 04/M01 A3036 RMK A01 T00361014  RH  070%=      5-min Rain = 0
KWE1 100000Z 26005KT 04/M01 A3036 RMK A01 T00351014  RH  070%=      5-min Rain = 0
KWE1 100001Z 25005KT 04/M01 A3036 RMK A01 T00351014  RH  070%=      5-min Rain = 0
KWE1 100002Z 25005KT 03/M01 A3036 RMK A01 T00341014  RH  071%=      5-min Rain = 0
KWE1 100003Z 25005KT 03/M01 A3036 RMK A01 T00341014  RH  071%=      5-min Rain = 0
KWE1 100004Z 25004KT 03/M01 A3036 RMK A01 T00341014  RH  071%=      5-min Rain = 0
KWE1 100005Z 24005KT 03/M01 A3036 RMK A01 T00331013  RH  072%=      5-min Rain = 0
KWE1 100006Z 24005KT 03/M01 A3036 RMK A01 T00331013  RH  072%=      5-min Rain = 0
KWE1 100007Z 24005KT 03/M01 A3036 RMK A01 T00321012  RH  073%=      5-min Rain = 0
KWE1 100008Z 24004KT 03/M01 A3036 RMK A01 T00311012  RH  073%=      5-min Rain = 0
KWE1 100009Z 24004KT 03/M01 A3036 RMK A01 T00311012  RH  073%=      5-min Rain = 0
KWE1 100010Z 24004KT 03/M01 A3036 RMK A01 T00311011  RH  074%=      5-min Rain = 0
KWE1 100011Z 24005KT 03/M01 A3036 RMK A01 T00311011  RH  074%=      5-min Rain = 0
KWE1 100012Z 24005KT 03/M01 A3036 RMK A01 T00301012  RH  074%=      5-min Rain = 0
KWE1 100013Z 24004KT 03/M01 A3036 RMK A01 T00301012  RH  074%=      5-min Rain = 0
KWE1 100014Z 25005KT 03/M01 A3036 RMK A01 T00301012  RH  074%=      5-min Rain = 0
KWE1 100015Z 24005KT 03/M01 A3036 RMK A01 T00301012  RH  074%=      5-min Rain = 0
KWE1 100016Z 24005KT 03/M01 A3036 RMK A01 T00291013  RH  074%=      5-min Rain = 0
KWE1 100017Z 24005KT 03/M01 A3036 RMK A01 T00291013  RH  074%=      5-min Rain = 0
KWE1 100018Z 24004KT 03/M01 A3036 RMK A01 T00291014  RH  073%=      5-min Rain = 0
KWE1 100019Z 25004KT 03/M02 A3036 RMK A01 T00291015  RH  073%=      5-min Rain = 0
KWE1 100020Z 25006KT 03/M02 A3036 RMK A01 T00291015  RH  072%=      5-min Rain = 0
KWE1 100021Z 25005KT 03/M02 A3036 RMK A01 T00291016  RH  072%=      5-min Rain = 0
KWE1 100022Z 25005KT 03/M02 A3036 RMK A01 T00281017  RH  072%=      5-min Rain = 0
KWE1 100023Z 25005KT 03/M02 A3036 RMK A01 T00281017  RH  072%=      5-min Rain = 0
KWE1 100024Z 25005KT 03/M02 A3036 RMK A01 T00281017  RH  072%=      5-min Rain = 0
KWE1 100025Z 25005KT 03/M02 A3036 RMK A01 T00281017  RH  072%=      5-min Rain = 0
KWE1 100026Z 25005KT 03/M02 A3036 RMK A01 T00281018  RH  072%=      5-min Rain = 0
KWE1 100027Z 25005KT 03/M02 A3036 RMK A01 T00281019  RH  071%=      5-min Rain = 0
KWE1 100028Z 26005KT 03/M02 A3036 RMK A01 T00281019  RH  071%=      5-min Rain = 0
KWE1 100029Z 25005KT 03/M02 A3036 RMK A01 T00281020  RH  071%=      5-min Rain = 0
KWE1 100030Z 26005KT 03/M02 A3036 RMK A01 T00271020  RH  071%=      5-min Rain = 0
KWE1 100031Z 25005KT 03/M02 A3036 RMK A01 T00271020  RH  071%=      5-min Rain = 0
KWE1 100032Z 26005KT 03/M02 A3036 RMK A01 T00271020  RH  072%=      5-min Rain = 0
KWE1 100033Z 26005KT 03/M02 A3036 RMK A01 T00261020  RH  072%=      5-min Rain = 0
KWE1 100034Z 26005KT 03/M02 A3036 RMK A01 T00261020  RH  072%=      5-min Rain = 0
KWE1 100035Z 26005KT 03/M02 A3036 RMK A01 T00251020  RH  072%=      5-min Rain = 0
KWE1 100036Z 26004KT 03/M02 A3036 RMK A01 T00251020  RH  072%=      5-min Rain = 0
KWE1 100037Z 26004KT 03/M02 A3036 RMK A01 T00251020  RH  072%=      5-min Rain = 0
KWE1 100038Z 25004KT 03/M02 A3036 RMK A01 T00251020  RH  072%=      5-min Rain = 0
KWE1 100039Z 26004KT 02/M02 A3036 RMK A01 T00241020  RH  072%=      5-min Rain = 0
KWE1 100040Z 26004KT 02/M02 A3036 RMK A01 T00241020  RH  072%=      5-min Rain = 0
KWE1 100041Z 26004KT 02/M02 A3036 RMK A01 T00241021  RH  073%=      5-min Rain = 0
KWE1 100042Z 26004KT 02/M02 A3036 RMK A01 T00241020  RH  073%=      5-min Rain = 0
KWE1 100043Z 26004KT 02/M02 A3037 RMK A01 T00241021  RH  072%=      5-min Rain = 0
KWE1 100044Z 27003KT 02/M02 A3037 RMK A01 T00241021  RH  072%=      5-min Rain = 0
KWE1 100045Z 27004KT 02/M02 A3037 RMK A01 T00241022  RH  072%=      5-min Rain = 0
KWE1 100046Z 27004KT 02/M02 A3037 RMK A01 T00231022  RH  072%=      5-min Rain = 0
KWE1 100047Z 27003KT 02/M02 A3037 RMK A01 T00231022  RH  072%=      5-min Rain = 0
KWE1 100048Z 27004KT 02/M02 A3037 RMK A01 T00231022  RH  072%=      5-min Rain = 0
KWE1 100049Z 27004KT 02/M02 A3037 RMK A01 T00221023  RH  072%=      5-min Rain = 0
KWE1 100050Z 27004KT 02/M02 A3037 RMK A01 T00221023  RH  072%=      5-min Rain = 0
KWE1 100051Z 27004KT 02/M02 A3037 RMK A01 T00211023  RH  073%=      5-min Rain = 0
KWE1 100052Z 27004KT 02/M02 A3037 RMK A01 T00211023  RH  073%=      5-min Rain = 0
KWE1 100053Z 27005KT 02/M02 A3037 RMK A01 T00201024  RH  073%=      5-min Rain = 0
KWE1 100054Z 27005KT 02/M02 A3037 RMK A01 T00201024  RH  073%=      5-min Rain = 0
KWE1 100055Z 27005KT 02/M03 A3037 RMK A01 T00191025  RH  073%=      5-min Rain = 0
KWE1 100056Z 27005KT 02/M03 A3037 RMK A01 T00191025  RH  073%=      5-min Rain = 0
KWE1 100057Z 27005KT 02/M03 A3037 RMK A01 T00191025  RH  072%=      5-min Rain = 0
KWE1 100058Z 27004KT 02/M03 A3037 RMK A01 T00181026  RH  073%=      5-min Rain = 0
KWE1 100059Z 28005KT 02/M03 A3037 RMK A01 T00181026  RH  073%=      5-min Rain = 0
KWE1 100100Z 28004KT 02/M03 A3037 RMK A01 T00171026  RH  073%=      5-min Rain = 0
KWE1 100101Z 28004KT 02/M03 A3037 RMK A01 T00181026  RH  073%=      5-min Rain = 0
KWE1 100102Z 27004KT 02/M03 A3037 RMK A01 T00171026  RH  073%=      5-min Rain = 0
KWE1 100103Z 27004KT 02/M03 A3037 RMK A01 T00171026  RH  073%=      5-min Rain = 0
KWE1 100104Z 27004KT 02/M03 A3037 RMK A01 T00171026  RH  073%=      5-min Rain = 0
KWE1 100105Z 26004KT 02/M03 A3037 RMK A01 T00181026  RH  073%=      5-min Rain = 0
KWE1 100106Z 26004KT 02/M03 A3037 RMK A01 T00181026  RH  073%=      5-min Rain = 0
KWE1 100107Z 26003KT 02/M03 A3037 RMK A01 T00181026  RH  073%=      5-min Rain = 0
KWE1 100108Z 26003KT 02/M03 A3037 RMK A01 T00181026  RH  073%=      5-min Rain = 0
KWE1 100109Z 26004KT 02/M03 A3037 RMK A01 T00181026  RH  072%=      5-min Rain = 0
KWE1 100110Z 26004KT 02/M03 A3037 RMK A01 T00181026  RH  072%=      5-min Rain = 0
KWE1 100111Z 26004KT 02/M03 A3037 RMK A01 T00181026  RH  072%=      5-min Rain = 0
KWE1 100112Z 27004KT 02/M03 A3037 RMK A01 T00181027  RH  072%=      5-min Rain = 0
KWE1 100113Z 26004KT 02/M03 A3037 RMK A01 T00181027  RH  072%=      5-min Rain = 0
KWE1 100114Z 27004KT 02/M03 A3037 RMK A01 T00181027  RH  072%=      5-min Rain = 0
KWE1 100115Z 27004KT 02/M03 A3037 RMK A01 T00181028  RH  072%=      5-min Rain = 0
KWE1 100116Z 27004KT 02/M03 A3037 RMK A01 T00171028  RH  072%=      5-min Rain = 0
KWE1 100117Z 27004KT 02/M03 A3037 RMK A01 T00171028  RH  072%=      5-min Rain = 0
KWE1 100118Z 27004KT 02/M03 A3037 RMK A01 T00171028  RH  072%=      5-min Rain = 0
KWE1 100119Z 27004KT 02/M03 A3037 RMK A01 T00161028  RH  072%=      5-min Rain = 0
KWE1 100120Z 27004KT 02/M03 A3037 RMK A01 T00161028  RH  072%=      5-min Rain = 0
KWE1 100121Z 27004KT 02/M03 A3037 RMK A01 T00161028  RH  073%=      5-min Rain = 0
KWE1 100122Z 27004KT 02/M03 A3037 RMK A01 T00161028  RH  073%=      5-min Rain = 0
KWE1 100123Z 27004KT 02/M03 A3037 RMK A01 T00161028  RH  073%=      5-min Rain = 0
KWE1 100124Z 27005KT 02/M03 A3037 RMK A01 T00151028  RH  073%=      5-min Rain = 0
KWE1 100125Z 28004KT 02/M03 A3037 RMK A01 T00151028  RH  073%=      5-min Rain = 0
KWE1 100126Z 27004KT 02/M03 A3038 RMK A01 T00161027  RH  073%=      5-min Rain = 0
KWE1 100127Z 27004KT 02/M03 A3038 RMK A01 T00161028  RH  073%=      5-min Rain = 0
KWE1 100128Z 27004KT 02/M03 A3038 RMK A01 T00161028  RH  073%=      5-min Rain = 0
KWE1 100129Z 28004KT 02/M03 A3038 RMK A01 T00151028  RH  073%=      5-min Rain = 0
KWE1 100130Z 27003KT 02/M03 A3038 RMK A01 T00151028  RH  073%=      5-min Rain = 0
KWE1 100131Z 28003KT 01/M03 A3038 RMK A01 T00141028  RH  074%=      5-min Rain = 0
KWE1 100132Z 27003KT 01/M03 A3038 RMK A01 T00141028  RH  074%=      5-min Rain = 0
KWE1 100133Z 27003KT 01/M03 A3038 RMK A01 T00141028  RH  074%=      5-min Rain = 0
KWE1 100134Z 27003KT 01/M03 A3038 RMK A01 T00141028  RH  074%=      5-min Rain = 0
KWE1 100135Z 27002KT 01/M03 A3038 RMK A01 T00141028  RH  074%=      5-min Rain = 0
KWE1 100136Z 27002KT 01/M03 A3038 RMK A01 T00141027  RH  074%=      5-min Rain = 0
KWE1 100137Z 27002KT 01/M03 A3038 RMK A01 T00131027  RH  074%=      5-min Rain = 0
KWE1 100138Z 28002KT 01/M03 A3038 RMK A01 T00141027  RH  075%=      5-min Rain = 0
KWE1 100139Z 27002KT 01/M03 A3038 RMK A01 T00131027  RH  075%=      5-min Rain = 0
KWE1 100140Z 27002KT 01/M03 A3038 RMK A01 T00131027  RH  075%=      5-min Rain = 0
KWE1 100141Z 27002KT 01/M03 A3038 RMK A01 T00131027  RH  075%=      5-min Rain = 0
KWE1 100142Z 26002KT 01/M03 A3038 RMK A01 T00131026  RH  075%=      5-min Rain = 0
KWE1 100143Z 26002KT 01/M03 A3038 RMK A01 T00131026  RH  075%=      5-min Rain = 0
KWE1 100144Z 26002KT 01/M03 A3038 RMK A01 T00131026  RH  075%=      5-min Rain = 0
KWE1 100145Z 27002KT 01/M03 A3038 RMK A01 T00131027  RH  075%=      5-min Rain = 0
KWE1 100146Z 27002KT 01/M03 A3038 RMK A01 T00131027  RH  075%=      5-min Rain = 0
KWE1 100147Z 28002KT 01/M03 A3038 RMK A01 T00131027  RH  075%=      5-min Rain = 0
KWE1 100148Z 28002KT 01/M03 A3038 RMK A01 T00131027  RH  075%=      5-min Rain = 0
KWE1 100149Z 29002KT 01/M03 A3038 RMK A01 T00131027  RH  075%=      5-min Rain = 0
KWE1 100150Z 28002KT 01/M03 A3038 RMK A01 T00131027  RH  075%=      5-min Rain = 0
KWE1 100151Z 28002KT 01/M03 A3038 RMK A01 T00131028  RH  074%=      5-min Rain = 0
KWE1 100152Z 28002KT 01/M03 A3038 RMK A01 T00131028  RH  074%=      5-min Rain = 0
KWE1 100153Z 28002KT 01/M03 A3038 RMK A01 T00131028  RH  074%=      5-min Rain = 0
KWE1 100154Z 28002KT 01/M03 A3038 RMK A01 T00131028  RH  074%=      5-min Rain = 0
KWE1 100155Z 27002KT 01/M03 A3038 RMK A01 T00131029  RH  074%=      5-min Rain = 0
KWE1 100156Z 28002KT 01/M03 A3039 RMK A01 T00131029  RH  073%=      5-min Rain = 0
KWE1 100157Z 28002KT 01/M03 A3039 RMK A01 T00131029  RH  073%=      5-min Rain = 0
KWE1 100158Z 28002KT 01/M03 A3039 RMK A01 T00141029  RH  073%=      5-min Rain = 0
KWE1 100159Z 28002KT 01/M03 A3039 RMK A01 T00131029  RH  073%=      5-min Rain = 0
KWE1 100200Z 28002KT 01/M03 A3039 RMK A01 T00131030  RH  073%=      5-min Rain = 0
KWE1 100201Z 28002KT 01/M03 A3039 RMK A01 T00131030  RH  073%=      5-min Rain = 0
KWE1 100202Z 28002KT 01/M03 A3039 RMK A01 T00131029  RH  073%=      5-min Rain = 0
KWE1 100203Z 29002KT 01/M03 A3039 RMK A01 T00131030  RH  073%=      5-min Rain = 0
KWE1 100204Z 28002KT 01/M03 A3039 RMK A01 T00131030  RH  073%=      5-min Rain = 0
KWE1 100205Z 27002KT 01/M03 A3039 RMK A01 T00131030  RH  073%=      5-min Rain = 0
KWE1 100206Z 26002KT 01/M03 A3039 RMK A01 T00131029  RH  073%=      5-min Rain = 0
KWE1 100207Z 25002KT 01/M03 A3039 RMK A01 T00121030  RH  074%=      5-min Rain = 0
KWE1 100208Z 25002KT 01/M03 A3039 RMK A01 T00121030  RH  074%=      5-min Rain = 0
KWE1 100209Z 25003KT 01/M03 A3039 RMK A01 T00111030  RH  074%=      5-min Rain = 0
KWE1 100210Z 25003KT 01/M03 A3039 RMK A01 T00111030  RH  074%=      5-min Rain = 0
KWE1 100211Z 25003KT 01/M03 A3039 RMK A01 T00101031  RH  074%=      5-min Rain = 0
KWE1 100212Z 25003KT 01/M03 A3039 RMK A01 T00101030  RH  074%=      5-min Rain = 0
KWE1 100213Z 25003KT 01/M03 A3039 RMK A01 T00101030  RH  075%=      5-min Rain = 0
KWE1 100214Z 24003KT 01/M03 A3039 RMK A01 T00101030  RH  075%=      5-min Rain = 0
KWE1 100215Z 24003KT 01/M03 A3039 RMK A01 T00101030  RH  075%=      5-min Rain = 0
KWE1 100216Z 24004KT 01/M03 A3039 RMK A01 T00101030  RH  075%=      5-min Rain = 0
KWE1 100217Z 24004KT 01/M03 A3039 RMK A01 T00091030  RH  075%=      5-min Rain = 0
KWE1 100218Z 24004KT 01/M03 A3039 RMK A01 T00091031  RH  075%=      5-min Rain = 0
KWE1 100219Z 24004KT 01/M03 A3039 RMK A01 T00091031  RH  075%=      5-min Rain = 0
KWE1 100220Z 25004KT 01/M03 A3039 RMK A01 T00091032  RH  074%=      5-min Rain = 0
KWE1 100221Z 24004KT 01/M03 A3039 RMK A01 T00091032  RH  074%=      5-min Rain = 0
KWE1 100222Z 24004KT 01/M03 A3039 RMK A01 T00101032  RH  073%=      5-min Rain = 0
KWE1 100223Z 24004KT 01/M03 A3039 RMK A01 T00101033  RH  073%=      5-min Rain = 0
KWE1 100224Z 24004KT 01/M03 A3039 RMK A01 T00101033  RH  073%=      5-min Rain = 0
KWE1 100225Z 24005KT 01/M03 A3039 RMK A01 T00091034  RH  073%=      5-min Rain = 0
KWE1 100226Z 24005KT 01/M03 A3039 RMK A01 T00091033  RH  073%=      5-min Rain = 0
KWE1 100227Z 24005KT 01/M03 A3039 RMK A01 T00091033  RH  074%=      5-min Rain = 0
KWE1 100228Z 24005KT 01/M03 A3039 RMK A01 T00091033  RH  074%=      5-min Rain = 0
KWE1 100229Z 24004KT 01/M03 A3039 RMK A01 T00081032  RH  074%=      5-min Rain = 0
KWE1 100230Z 24004KT 01/M03 A3039 RMK A01 T00081031  RH  075%=      5-min Rain = 0
KWE1 100231Z 24004KT 01/M03 A3039 RMK A01 T00081030  RH  076%=      5-min Rain = 0
KWE1 100232Z 24004KT 01/M03 A3039 RMK A01 T00081030  RH  076%=      5-min Rain = 0
KWE1 100233Z 24005KT 01/M03 A3039 RMK A01 T00071030  RH  076%=      5-min Rain = 0
KWE1 100234Z 24005KT 01/M03 A3039 RMK A01 T00071030  RH  076%=      5-min Rain = 0
KWE1 100235Z 24005KT 01/M03 A3039 RMK A01 T00071031  RH  076%=      5-min Rain = 0
KWE1 100236Z 24005KT 01/M03 A3039 RMK A01 T00061031  RH  076%=      5-min Rain = 0
KWE1 100237Z 25004KT 01/M03 A3039 RMK A01 T00061031  RH  076%=      5-min Rain = 0
KWE1 100238Z 25004KT 01/M03 A3039 RMK A01 T00061032  RH  076%=      5-min Rain = 0
KWE1 100239Z 25004KT 01/M03 A3039 RMK A01 T00061032  RH  076%=      5-min Rain = 0
KWE1 100240Z 25005KT 01/M03 A3039 RMK A01 T00071033  RH  075%=      5-min Rain = 0
KWE1 100241Z 24005KT 01/M03 A3039 RMK A01 T00081033  RH  074%=      5-min Rain = 0
KWE1 100242Z 24005KT 01/M03 A3039 RMK A01 T00081033  RH  074%=      5-min Rain = 0
KWE1 100243Z 25005KT 01/M03 A3039 RMK A01 T00081034  RH  074%=      5-min Rain = 0
KWE1 100244Z 25004KT 01/M03 A3039 RMK A01 T00081034  RH  073%=      5-min Rain = 0
KWE1 100245Z 25004KT 01/M03 A3039 RMK A01 T00091034  RH  073%=      5-min Rain = 0
KWE1 100246Z 25004KT 01/M03 A3039 RMK A01 T00091034  RH  073%=      5-min Rain = 0
KWE1 100247Z 25004KT 01/M03 A3039 RMK A01 T00101034  RH  073%=      5-min Rain = 0
KWE1 100248Z 24004KT 01/M03 A3039 RMK A01 T00101034  RH  073%=      5-min Rain = 0
KWE1 100249Z 24004KT 01/M03 A3039 RMK A01 T00101034  RH  073%=      5-min Rain = 0
KWE1 100250Z 24004KT 01/M03 A3039 RMK A01 T00101034  RH  072%=      5-min Rain = 0
KWE1 100251Z 24004KT 01/M04 A3039 RMK A01 T00091035  RH  072%=      5-min Rain = 0
KWE1 100252Z 24004KT 01/M03 A3039 RMK A01 T00091034  RH  073%=      5-min Rain = 0
KWE1 100253Z 24004KT 01/M03 A3039 RMK A01 T00091034  RH  073%=      5-min Rain = 0
KWE1 100254Z 24004KT 01/M03 A3039 RMK A01 T00091034  RH  073%=      5-min Rain = 0
KWE1 100255Z 24004KT 01/M03 A3039 RMK A01 T00091034  RH  073%=      5-min Rain = 0
KWE1 100256Z 24004KT 01/M03 A3039 RMK A01 T00081033  RH  074%=      5-min Rain = 0
KWE1 100257Z 23003KT 01/M03 A3039 RMK A01 T00071032  RH  075%=      5-min Rain = 0
KWE1 100258Z 23004KT 01/M03 A3039 RMK A01 T00061032  RH  076%=      5-min Rain = 0
KWE1 100259Z 23004KT 01/M03 A3039 RMK A01 T00051031  RH  077%=      5-min Rain = 0
KWE1 100300Z 23004KT 01/M03 A3039 RMK A01 T00051031  RH  077%=      5-min Rain = 0
KWE1 100301Z 23004KT 01/M03 A3039 RMK A01 T00051030  RH  078%=      5-min Rain = 0
KWE1 100302Z 23004KT 00/M03 A3039 RMK A01 T00041029  RH  078%=      5-min Rain = 0
KWE1 100303Z 24004KT 00/M03 A3039 RMK A01 T00031029  RH  079%=      5-min Rain = 0
KWE1 100304Z 24004KT 00/M03 A3039 RMK A01 T00031029  RH  079%=      5-min Rain = 0
KWE1 100305Z 25004KT 00/M03 A3039 RMK A01 T00021029  RH  080%=      5-min Rain = 0
KWE1 100306Z 25004KT 00/M03 A3039 RMK A01 T00021029  RH  080%=      5-min Rain = 0
KWE1 100307Z 25004KT 00/M03 A3039 RMK A01 T00011028  RH  080%=      5-min Rain = 0
KWE1 100308Z 25004KT 00/M03 A3039 RMK A01 T00011029  RH  080%=      5-min Rain = 0
KWE1 100309Z 24003KT 00/M03 A3039 RMK A01 T00011029  RH  080%=      5-min Rain = 0
KWE1 100310Z 25003KT 00/M03 A3039 RMK A01 T00011030  RH  080%=      5-min Rain = 0
KWE1 100311Z 24003KT 00/M03 A3039 RMK A01 T00011030  RH  080%=      5-min Rain = 0
KWE1 100312Z 25004KT 00/M03 A3039 RMK A01 T00011030  RH  080%=      5-min Rain = 0
KWE1 100313Z 24004KT 00/M03 A3039 RMK A01 T00011030  RH  079%=      5-min Rain = 0
KWE1 100314Z 24004KT 00/M03 A3039 RMK A01 T00021031  RH  079%=      5-min Rain = 0
KWE1 100315Z 24004KT 00/M03 A3039 RMK A01 T00021032  RH  078%=      5-min Rain = 0
KWE1 100316Z 24004KT 00/M03 A3039 RMK A01 T00021032  RH  078%=      5-min Rain = 0
KWE1 100317Z 24004KT 00/M03 A3039 RMK A01 T00021032  RH  078%=      5-min Rain = 0
KWE1 100318Z 24004KT 00/M03 A3039 RMK A01 T00021032  RH  078%=      5-min Rain = 0
KWE1 100319Z 25004KT 00/M03 A3039 RMK A01 T00021032  RH  078%=      5-min Rain = 0
KWE1 100320Z 25004KT 00/M03 A3039 RMK A01 T00021032  RH  078%=      5-min Rain = 0
KWE1 100321Z 25004KT 00/M03 A3039 RMK A01 T00031031  RH  078%=      5-min Rain = 0
KWE1 100322Z 25004KT 00/M03 A3039 RMK A01 T00031032  RH  078%=      5-min Rain = 0
KWE1 100323Z 25004KT 00/M03 A3039 RMK A01 T00031031  RH  077%=      5-min Rain = 0
KWE1 100324Z 25005KT 00/M03 A3039 RMK A01 T00041032  RH  077%=      5-min Rain = 0
KWE1 100325Z 25004KT 00/M03 A3039 RMK A01 T00041032  RH  077%=      5-min Rain = 0
KWE1 100326Z 25004KT 00/M03 A3039 RMK A01 T00041033  RH  076%=      5-min Rain = 0
KWE1 100327Z 25004KT 00/M03 A3039 RMK A01 T00041033  RH  076%=      5-min Rain = 0
KWE1 100328Z 24005KT 00/M03 A3039 RMK A01 T00041034  RH  076%=      5-min Rain = 0
KWE1 100329Z 25005KT 00/M03 A3039 RMK A01 T00041033  RH  076%=      5-min Rain = 0
KWE1 100330Z 24004KT 00/M03 A3039 RMK A01 T00041033  RH  076%=      5-min Rain = 0
KWE1 100331Z 25005KT 00/M03 A3039 RMK A01 T00041034  RH  076%=      5-min Rain = 0
KWE1 100332Z 24005KT 00/M03 A3039 RMK A01 T00041034  RH  076%=      5-min Rain = 0
KWE1 100333Z 25005KT 00/M03 A3039 RMK A01 T00041034  RH  075%=      5-min Rain = 0
KWE1 100334Z 24005KT 01/M04 A3039 RMK A01 T00051035  RH  075%=      5-min Rain = 0
KWE1 100335Z 24005KT 01/M04 A3038 RMK A01 T00051035  RH  074%=      5-min Rain = 0
KWE1 100336Z 24005KT 01/M04 A3038 RMK A01 T00051035  RH  074%=      5-min Rain = 0
KWE1 100337Z 24005KT 01/M04 A3038 RMK A01 T00061035  RH  074%=      5-min Rain = 0
KWE1 100338Z 23006KT 01/M04 A3038 RMK A01 T00061035  RH  074%=      5-min Rain = 0
KWE1 100339Z 24006KT 01/M04 A3038 RMK A01 T00061035  RH  074%=      5-min Rain = 0
KWE1 100340Z 24007KT 01/M04 A3038 RMK A01 T00051036  RH  074%=      5-min Rain = 0
KWE1 100341Z 24007KT 01/M04 A3038 RMK A01 T00061035  RH  074%=      5-min Rain = 0
KWE1 100342Z 24006KT 01/M04 A3038 RMK A01 T00071036  RH  073%=      5-min Rain = 0
KWE1 100343Z 23006KT 01/M04 A3038 RMK A01 T00071036  RH  073%=      5-min Rain = 0
KWE1 100344Z 23006KT 01/M04 A3038 RMK A01 T00071035  RH  074%=      5-min Rain = 0
KWE1 100345Z 23006KT 01/M03 A3038 RMK A01 T00061034  RH  075%=      5-min Rain = 0
KWE1 100346Z 22007KT 01/M03 A3037 RMK A01 T00061033  RH  075%=      5-min Rain = 0
KWE1 100347Z 23006KT 01/M03 A3037 RMK A01 T00051033  RH  075%=      5-min Rain = 0
KWE1 100348Z 23007KT 01/M03 A3037 RMK A01 T00051033  RH  076%=      5-min Rain = 0
KWE1 100349Z 23007KT 00/M03 A3037 RMK A01 T00041033  RH  076%=      5-min Rain = 0
KWE1 100350Z 23007KT 00/M03 A3037 RMK A01 T00041033  RH  076%=      5-min Rain = 0
KWE1 100351Z 23007KT 00/M03 A3037 RMK A01 T00041032  RH  077%=      5-min Rain = 0
KWE1 100352Z 22007KT 00/M03 A3037 RMK A01 T00031032  RH  077%=      5-min Rain = 0
KWE1 100353Z 23006KT 00/M03 A3037 RMK A01 T00031032  RH  078%=      5-min Rain = 0
KWE1 100354Z 23007KT 00/M03 A3037 RMK A01 T00031031  RH  078%=      5-min Rain = 0
KWE1 100355Z 23007KT 00/M03 A3037 RMK A01 T00031031  RH  078%=      5-min Rain = 0
KWE1 100356Z 23006KT 00/M03 A3037 RMK A01 T00031031  RH  078%=      5-min Rain = 0
KWE1 100357Z 24006KT 00/M03 A3038 RMK A01 T00031032  RH  077%=      5-min Rain = 0
KWE1 100358Z 24006KT 00/M03 A3038 RMK A01 T00031032  RH  077%=      5-min Rain = 0
KWE1 100359Z 24006KT 00/M03 A3038 RMK A01 T00031033  RH  077%=      5-min Rain = 0
KWE1 100400Z 24006KT 00/M03 A3038 RMK A01 T00031033  RH  077%=      5-min Rain = 0
KWE1 100401Z 24006KT 00/M03 A3038 RMK A01 T00031033  RH  077%=      5-min Rain = 0
KWE1 100402Z 24006KT 00/M03 A3038 RMK A01 T00031033  RH  077%=      5-min Rain = 0
KWE1 100403Z 24006KT 00/M03 A3038 RMK A01 T00041033  RH  077%=      5-min Rain = 0
KWE1 100404Z 24006KT 00/M03 A3038 RMK A01 T00041033  RH  076%=      5-min Rain = 0
KWE1 100405Z 24006KT 00/M03 A3038 RMK A01 T00031033  RH  076%=      5-min Rain = 0
KWE1 100406Z 24006KT 00/M03 A3038 RMK A01 T00031034  RH  076%=      5-min Rain = 0
KWE1 100407Z 24006KT 00/M03 A3038 RMK A01 T00031034  RH  076%=      5-min Rain = 0
KWE1 100408Z 24006KT 00/M03 A3038 RMK A01 T00031034  RH  076%=      5-min Rain = 0
KWE1 100409Z 24006KT 00/M03 A3038 RMK A01 T00031033  RH  077%=      5-min Rain = 0
KWE1 100410Z 24006KT 00/M03 A3038 RMK A01 T00031033  RH  077%=      5-min Rain = 0
KWE1 100411Z 24005KT 00/M03 A3038 RMK A01 T00031033  RH  077%=      5-min Rain = 0
KWE1 100412Z 24005KT 00/M03 A3038 RMK A01 T00031033  RH  077%=      5-min Rain = 0
KWE1 100413Z 24005KT 00/M03 A3038 RMK A01 T00031033  RH  077%=      5-min Rain = 0
KWE1 100414Z 24004KT 00/M03 A3038 RMK A01 T00031033  RH  077%=      5-min Rain = 0
KWE1 100415Z 24004KT 00/M03 A3038 RMK A01 T00031033  RH  077%=      5-min Rain = 0
KWE1 100416Z 25004KT 00/M03 A3038 RMK A01 T00031032  RH  077%=      5-min Rain = 0
KWE1 100417Z 25004KT 00/M03 A3038 RMK A01 T00031032  RH  077%=      5-min Rain = 0
KWE1 100418Z 25004KT 00/M03 A3038 RMK A01 T00021032  RH  078%=      5-min Rain = 0
KWE1 100419Z 25004KT 00/M03 A3038 RMK A01 T00021032  RH  078%=      5-min Rain = 0
KWE1 100420Z 25004KT 00/M03 A3038 RMK A01 T00021032  RH  078%=      5-min Rain = 0
KWE1 100421Z 26004KT 00/M03 A3039 RMK A01 T00021032  RH  078%=      5-min Rain = 0
KWE1 100422Z 25004KT 00/M03 A3039 RMK A01 T00031032  RH  077%=      5-min Rain = 0
KWE1 100423Z 26005KT 00/M03 A3039 RMK A01 T00041032  RH  077%=      5-min Rain = 0
KWE1 100424Z 26004KT 00/M03 A3039 RMK A01 T00041033  RH  077%=      5-min Rain = 0
KWE1 100425Z 26004KT 00/M03 A3039 RMK A01 T00041033  RH  076%=      5-min Rain = 0
KWE1 100426Z 25004KT 00/M03 A3039 RMK A01 T00041033  RH  076%=      5-min Rain = 0
KWE1 100427Z 25004KT 01/M03 A3039 RMK A01 T00051033  RH  076%=      5-min Rain = 0
KWE1 100428Z 26004KT 01/M03 A3039 RMK A01 T00051033  RH  076%=      5-min Rain = 0
KWE1 100429Z 26003KT 01/M03 A3039 RMK A01 T00051033  RH  076%=      5-min Rain = 0
KWE1 100430Z 26004KT 01/M03 A3039 RMK A01 T00051033  RH  076%=      5-min Rain = 0
KWE1 100431Z 26004KT 01/M03 A3039 RMK A01 T00051033  RH  076%=      5-min Rain = 0
KWE1 100432Z 26003KT 01/M03 A3039 RMK A01 T00051033  RH  076%=      5-min Rain = 0
KWE1 100433Z 26003KT 01/M03 A3039 RMK A01 T00051034  RH  075%=      5-min Rain = 0
KWE1 100434Z 26003KT 00/M03 A3039 RMK A01 T00041034  RH  075%=      5-min Rain = 0
KWE1 100435Z 26003KT 00/M04 A3039 RMK A01 T00041035  RH  075%=      5-min Rain = 0
KWE1 100436Z 26003KT 00/M04 A3039 RMK A01 T00031035  RH  076%=      5-min Rain = 0
KWE1 100437Z 26004KT 00/M03 A3039 RMK A01 T00031034  RH  076%=      5-min Rain = 0
KWE1 100438Z 25003KT 00/M03 A3039 RMK A01 T00031034  RH  076%=      5-min Rain = 0
KWE1 100439Z 25003KT 00/M03 A3039 RMK A01 T00031033  RH  076%=      5-min Rain = 0
KWE1 100440Z 25003KT 00/M03 A3039 RMK A01 T00031033  RH  077%=      5-min Rain = 0
KWE1 100441Z 26003KT 00/M03 A3039 RMK A01 T00031033  RH  077%=      5-min Rain = 0
KWE1 100442Z 26003KT 00/M03 A3039 RMK A01 T00031033  RH  077%=      5-min Rain = 0
KWE1 100443Z 26003KT 00/M03 A3039 RMK A01 T00031033  RH  077%=      5-min Rain = 0
KWE1 100444Z 26003KT 00/M03 A3039 RMK A01 T00031032  RH  077%=      5-min Rain = 0
KWE1 100445Z 27003KT 00/M03 A3039 RMK A01 T00031032  RH  077%=      5-min Rain = 0
KWE1 100446Z 27003KT 00/M03 A3039 RMK A01 T00031032  RH  077%=      5-min Rain = 0
KWE1 100447Z 27004KT 00/M03 A3039 RMK A01 T00031033  RH  077%=      5-min Rain = 0
KWE1 100448Z 27004KT 00/M03 A3039 RMK A01 T00021034  RH  077%=      5-min Rain = 0
KWE1 100449Z 27004KT 00/M03 A3039 RMK A01 T00011034  RH  077%=      5-min Rain = 0
KWE1 100450Z 28004KT 00/03 A3039 RMK A01 T00-00-34  RH  078%=      5-min Rain = 0
KWE1 100451Z 28004KT 00/03 A3039 RMK A01 T00-00-34  RH  078%=      5-min Rain = 0
KWE1 100452Z 27003KT 00/03 A3039 RMK A01 T00-00-33  RH  078%=      5-min Rain = 0
KWE1 100453Z 27004KT 00/03 A3039 RMK A01 T00-00-33  RH  079%=      5-min Rain = 0
KWE1 100454Z 26004KT 00/03 A3039 RMK A01 T00-00-33  RH  079%=      5-min Rain = 0
KWE1 100455Z 26004KT 00/03 A3039 RMK A01 T00000-32  RH  079%=      5-min Rain = 0
KWE1 100456Z 25004KT 00/M03 A3039 RMK A01 T00011032  RH  078%=      5-min Rain = 0
KWE1 100457Z 26003KT 00/M03 A3039 RMK A01 T00011032  RH  078%=      5-min Rain = 0
KWE1 100458Z 26004KT 00/M03 A3039 RMK A01 T00011032  RH  078%=      5-min Rain = 0
KWE1 100459Z 26004KT 00/M03 A3039 RMK A01 T00011032  RH  078%=      5-min Rain = 0
KWE1 100500Z 25004KT 00/M03 A3039 RMK A01 T00021032  RH  078%=      5-min Rain = 0
KWE1 100501Z 25004KT 00/M03 A3039 RMK A01 T00021032  RH  078%=      5-min Rain = 0
KWE1 100502Z 25003KT 00/M03 A3039 RMK A01 T00021032  RH  078%=      5-min Rain = 0
KWE1 100503Z 24003KT 00/M03 A3038 RMK A01 T00021032  RH  078%=      5-min Rain = 0
KWE1 100504Z 24003KT 00/M03 A3038 RMK A01 T00021032  RH  078%=      5-min Rain = 0
KWE1 100505Z 24003KT 00/M03 A3038 RMK A01 T00021032  RH  078%=      5-min Rain = 0
KWE1 100506Z 24003KT 00/M03 A3038 RMK A01 T00011032  RH  078%=      5-min Rain = 0
KWE1 100507Z 24004KT 00/M03 A3038 RMK A01 T00011032  RH  079%=      5-min Rain = 0
KWE1 100508Z 24004KT 00/M03 A3038 RMK A01 T00011032  RH  079%=      5-min Rain = 0
KWE1 100509Z 24004KT 00/03 A3038 RMK A01 T00000-32  RH  079%=      5-min Rain = 0
KWE1 100510Z 24004KT 00/03 A3038 RMK A01 T00-00-31  RH  080%=      5-min Rain = 0
KWE1 100511Z 24004KT 00/03 A3038 RMK A01 T00-00-31  RH  080%=      5-min Rain = 0
KWE1 100512Z 25004KT 00/03 A3038 RMK A01 T00-00-31  RH  080%=      5-min Rain = 0
KWE1 100513Z 25004KT 00/03 A3038 RMK A01 T00-00-31  RH  080%=      5-min Rain = 0
KWE1 100514Z 25004KT 00/03 A3038 RMK A01 T00000-30  RH  080%=      5-min Rain = 0
KWE1 100515Z 24004KT 00/M03 A3038 RMK A01 T00011031  RH  080%=      5-min Rain = 0
KWE1 100516Z 24004KT 00/03 A3038 RMK A01 T00000-31  RH  079%=      5-min Rain = 0
KWE1 100517Z 23004KT 00/M03 A3038 RMK A01 T00011031  RH  079%=      5-min Rain = 0
KWE1 100518Z 23004KT 00/03 A3038 RMK A01 T00000-31  RH  079%=      5-min Rain = 0
KWE1 100519Z 23004KT 00/03 A3038 RMK A01 T00000-31  RH  079%=      5-min Rain = 0
KWE1 100520Z 23003KT 00/03 A3038 RMK A01 T00000-31  RH  080%=      5-min Rain = 0
KWE1 100521Z 22003KT M00/M03 A3038 RMK A01 T10011031  RH  080%=      5-min Rain = 0
KWE1 100522Z 23004KT M00/M03 A3037 RMK A01 T10011031  RH  081%=      5-min Rain = 0
KWE1 100523Z 24005KT M00/M03 A3037 RMK A01 T10011030  RH  081%=      5-min Rain = 0
KWE1 100524Z 24005KT M00/M03 A3037 RMK A01 T10011030  RH  081%=      5-min Rain = 0
KWE1 100525Z 24005KT M00/M03 A3037 RMK A01 T10011030  RH  081%=      5-min Rain = 0
KWE1 100526Z 24005KT M00/M03 A3037 RMK A01 T10011030  RH  080%=      5-min Rain = 0
KWE1 100527Z 24005KT M00/M03 A3037 RMK A01 T10011031  RH  080%=      5-min Rain = 0
KWE1 100528Z 24005KT 00/03 A3037 RMK A01 T00-00-31  RH  080%=      5-min Rain = 0
KWE1 100529Z 24005KT 00/03 A3037 RMK A01 T00000-31  RH  080%=      5-min Rain = 0
KWE1 100530Z 24005KT 00/03 A3037 RMK A01 T00000-31  RH  080%=      5-min Rain = 0
KWE1 100531Z 24005KT 00/03 A3037 RMK A01 T00-00-31  RH  080%=      5-min Rain = 0
KWE1 100532Z 25005KT M00/M03 A3037 RMK A01 T10011031  RH  080%=      5-min Rain = 0
KWE1 100533Z 25004KT M00/M03 A3037 RMK A01 T10011031  RH  080%=      5-min Rain = 0
KWE1 100534Z 25004KT M00/M03 A3037 RMK A01 T10011031  RH  080%=      5-min Rain = 0
KWE1 100535Z 25004KT M00/M03 A3037 RMK A01 T10011031  RH  081%=      5-min Rain = 0
KWE1 100536Z 25004KT M00/M03 A3037 RMK A01 T10021031  RH  081%=      5-min Rain = 0
KWE1 100537Z 25004KT M00/M03 A3037 RMK A01 T10011031  RH  081%=      5-min Rain = 0
KWE1 100538Z 25004KT M00/M03 A3037 RMK A01 T10011030  RH  081%=      5-min Rain = 0
KWE1 100539Z 25004KT M00/M03 A3037 RMK A01 T10011031  RH  081%=      5-min Rain = 0
KWE1 100540Z 25004KT M00/M03 A3037 RMK A01 T10011031  RH  081%=      5-min Rain = 0
KWE1 100541Z 26004KT M00/M03 A3037 RMK A01 T10011031  RH  081%=      5-min Rain = 0
KWE1 100542Z 25004KT M00/M03 A3037 RMK A01 T10011031  RH  081%=      5-min Rain = 0
KWE1 100543Z 25004KT M00/M03 A3037 RMK A01 T10011031  RH  081%=      5-min Rain = 0
KWE1 100544Z 25004KT M00/M03 A3037 RMK A01 T10011030  RH  081%=      5-min Rain = 0
KWE1 100545Z 26005KT M00/M03 A3037 RMK A01 T10011030  RH  081%=      5-min Rain = 0
KWE1 100546Z 26005KT M00/M03 A3037 RMK A01 T10011030  RH  081%=      5-min Rain = 0
KWE1 100547Z 26005KT M00/M03 A3037 RMK A01 T10011030  RH  081%=      5-min Rain = 0
KWE1 100548Z 26005KT M00/M03 A3038 RMK A01 T10011030  RH  081%=      5-min Rain = 0
KWE1 100549Z 26005KT M00/M03 A3038 RMK A01 T10011031  RH  081%=      5-min Rain = 0
KWE1 100550Z 26005KT M00/M03 A3038 RMK A01 T10011031  RH  080%=      5-min Rain = 0
KWE1 100551Z 26005KT M00/M03 A3038 RMK A01 T10011031  RH  080%=      5-min Rain = 0
KWE1 100552Z 26005KT M00/M03 A3038 RMK A01 T10011032  RH  080%=      5-min Rain = 0
KWE1 100553Z 26005KT M00/M03 A3038 RMK A01 T10011032  RH  080%=      5-min Rain = 0
KWE1 100554Z 27004KT M00/M03 A3038 RMK A01 T10011031  RH  080%=      5-min Rain = 0
KWE1 100555Z 27004KT M00/M03 A3038 RMK A01 T10011031  RH  080%=      5-min Rain = 0
KWE1 100556Z 27004KT M00/M03 A3038 RMK A01 T10011032  RH  080%=      5-min Rain = 0
KWE1 100557Z 27004KT M00/M03 A3038 RMK A01 T10021032  RH  080%=      5-min Rain = 0
KWE1 100558Z 27004KT M00/M03 A3038 RMK A01 T10031032  RH  081%=      5-min Rain = 0
KWE1 100559Z 27004KT M00/M03 A3038 RMK A01 T10041033  RH  081%=      5-min Rain = 0

Page generated in 0.1559 seconds.